GEFSCGP_850_meantemp_162.txt.gz
Temperature
20 18 18 19 19 20 20 19 19 19 19 18 17 17 16 16 16 16 15 15 15 16 16 15 15 15 15 15 15 15 15 15 15 15 14 14 14 14 14 14 14 14 13 13
18 19 20 19 19 19 19 19 18 18 19 18 17 17 17 16 16 16 15 15 15 15 15 15 15 15 15 15 15 15 15 15 14 14 14 14 14 14 13 13 13 13 13 13
20 20 20 20 20 20 19 19 19 19 18 18 18 17 16 16 16 16 15 15 15 15 15 15 15 15 15 15 14 14 14 14 14 14 14 14 13 13 13 13 13 12 12 12
20 20 21 21 21 20 20 20 19 19 17 17 17 17 17 16 15 15 15 15 15 15 15 14 14 14 14 14 14 14 14 14 14 13 13 13 13 13 12 12 12 12 12 12
21 21 21 21 21 21 20 20 19 18 17 16 16 16 16 15 15 15 15 15 15 15 15 14 14 14 14 14 13 13 13 13 13 13 13 13 12 12 12 12 12 11 11 11
20 21 21 21 21 20 20 18 17 15 15 17 16 16 16 15 15 15 15 15 15 15 14 14 14 14 13 13 13 13 13 13 13 12 12 12 12 12 11 11 11 11 11 11
20 21 21 21 21 20 19 17 17 17 16 16 16 15 15 15 15 15 15 15 15 14 14 14 14 13 13 13 13 12 12 12 12 12 12 12 11 11 11 11 11 11 11 10
20 20 21 21 21 20 19 18 17 17 16 16 16 15 15 15 15 15 15 15 14 14 14 13 13 13 13 13 12 12 12 12 12 12 11 11 11 11 10 10 10 10 10 10
19 20 21 21 20 19 18 17 16 15 15 15 15 15 15 15 14 14 14 13 13 13 13 13 13 13 13 12 12 12 12 11 11 11 11 11 11 10 10 10 10 10 10 10
19 20 20 20 20 19 18 15 14 15 16 16 16 16 15 15 14 13 13 13 13 13 13 13 12 12 12 12 12 12 11 11 11 11 11 10 10 10 10 10 10 9 9 9
19 19 19 19 20 20 18 17 14 13 14 15 16 15 15 15 14 13 12 12 13 13 12 12 12 12 12 11 11 11 11 11 11 10 10 10 10 10 10 9 9 9 9 9
17 16 17 18 19 19 19 17 15 16 16 14 14 15 15 14 13 13 12 12 12 12 12 12 12 12 11 11 11 11 10 10 10 10 10 10 10 9 9 9 9 9 9 9
17 16 16 17 17 18 18 17 15 14 13 13 14 15 14 13 13 12 12 12 12 11 11 11 11 11 11 11 11 10 10 10 10 10 10 9 9 9 9 9 9 9 8 9
16 15 16 17 17 17 18 17 15 14 14 14 14 15 14 13 12 12 12 12 11 11 11 11 11 11 11 11 10 10 10 10 10 9 9 9 9 9 9 9 8 8 8 8
16 16 16 16 17 17 17 17 17 16 15 15 16 15 14 13 12 12 11 11 11 11 11 11 11 11 10 10 10 10 10 10 9 9 9 9 9 9 8 8 8 8 8 8
14 16 16 17 18 17 17 17 17 16 16 15 15 15 14 13 12 11 11 11 11 11 11 11 11 10 10 10 10 10 10 9 9 9 9 9 8 8 8 8 8 8 8 8
14 15 15 15 17 17 16 17 17 16 16 15 15 15 12 11 11 11 11 11 11 11 11 11 11 10 10 10 10 10 10 9 9 9 9 8 8 8 8 8 8 8 8 8
13 13 13 14 16 17 16 16 17 16 16 15 14 13 12 12 12 12 12 12 12 11 11 11 11 11 10 10 10 10 9 9 9 9 9 8 8 8 8 8 8 8 8 8
13 13 13 13 15 15 16 16 16 16 16 15 14 12 12 12 11 11 12 12 12 12 11 11 11 11 10 10 10 9 9 9 9 9 8 8 8 8 8 8 8 8 8 8
13 13 13 13 15 15 16 17 17 16 15 14 13 12 11 11 11 11 12 12 12 12 11 11 11 10 10 10 10 9 9 9 9 9 8 8 8 8 8 8 8 8 8 8
15 14 13 13 14 14 15 16 17 16 15 15 14 13 12 12 12 13 13 12 12 11 11 11 11 10 10 10 9 9 9 9 9 9 8 8 8 8 8 8 8 8 8 8
14 14 13 13 14 15 16 16 15 15 16 15 15 14 13 14 13 13 13 12 11 11 11 11 10 10 10 10 9 9 9 9 9 8 8 8 8 8 8 8 8 8 8 8
13 13 13 13 14 15 16 16 17 17 16 16 15 15 14 14 13 13 12 12 11 11 11 11 10 10 10 9 9 9 9 9 9 8 8 8 8 8 8 8 8 8 8 8
13 12 12 13 13 14 16 16 17 17 17 16 16 15 14 14 13 13 12 12 11 11 11 10 10 10 10 9 9 9 9 9 9 9 8 8 8 8 8 8 8 9 9 8
13 12 12 13 13 14 15 16 17 17 16 16 15 15 14 14 13 13 12 12 11 11 11 10 10 10 10 9 9 9 9 9 9 9 9 9 9 8 8 8 9 9 9 9
12 13 13 13 14 14 16 17 17 16 16 16 15 14 14 14 13 13 12 12 11 11 11 10 10 10 10 9 9 9 9 9 9 9 9 9 9 9 9 9 9 9 9 9

GEFSCGP_850_meantemp_168.txt.gz
Temperature
25 27 27 27 27 28 27 27 27 26 26 26 25 25 23 22 21 21 20 19 18 18 17 16 15 15 15 15 15 15 15 15 15 15 14 14 14 13 13 13 13 13 13 13
26 26 27 27 27 27 27 27 26 26 25 25 25 25 24 23 22 21 21 20 19 18 17 15 15 15 15 15 15 15 15 14 14 14 14 14 13 13 13 13 13 13 13 13
27 27 26 26 26 26 27 27 27 26 25 25 25 24 24 23 22 21 20 19 19 18 17 16 15 15 15 14 14 14 14 14 14 14 13 13 13 13 13 12 12 12 12 12
27 27 26 26 26 27 26 27 26 26 26 26 25 25 25 24 23 22 20 19 18 17 16 16 15 15 14 14 14 14 14 14 14 14 13 13 12 12 12 12 12 12 12 12
26 26 26 26 27 26 27 26 26 26 26 26 25 25 26 24 23 22 21 19 18 17 16 16 15 15 14 14 14 13 14 14 13 13 13 12 12 12 12 12 11 11 11 11
27 27 27 27 27 26 26 26 26 26 26 25 26 25 26 25 24 23 22 20 18 17 16 15 15 14 14 14 13 13 13 13 13 13 12 12 12 12 11 11 11 11 11 11
26 27 26 26 26 26 26 26 25 25 25 26 26 25 25 24 23 23 21 20 18 17 16 15 14 14 14 13 13 13 13 13 12 12 12 12 12 11 11 11 11 11 11 11
26 26 26 26 26 26 26 26 25 24 25 26 25 25 25 23 22 20 20 19 17 16 15 14 14 14 13 13 12 12 12 12 12 12 12 11 11 11 11 10 11 10 10 10
26 26 26 26 26 27 26 26 27 26 26 25 26 25 24 22 21 20 19 18 17 16 15 14 13 13 13 12 12 12 12 12 12 11 11 11 11 10 10 10 10 10 10 10
26 25 26 26 26 26 26 27 26 25 24 24 25 25 25 23 21 20 19 17 17 15 14 13 13 13 12 12 12 12 12 11 11 11 11 11 10 10 10 10 10 10 10 10
26 25 25 26 26 26 25 25 25 26 25 24 24 24 24 23 22 20 19 17 16 15 14 13 13 12 12 12 12 11 11 11 11 11 11 10 10 10 10 10 9 9 9 9
25 25 25 25 26 25 25 26 25 24 24 24 24 23 22 22 21 20 18 17 15 14 14 13 12 12 12 11 11 11 11 11 10 10 10 10 10 10 9 9 9 9 9 9
24 24 23 24 24 24 25 25 25 25 24 24 24 23 21 21 20 18 17 16 15 14 13 13 12 12 11 11 11 11 11 10 10 10 10 10 9 9 9 9 9 9 9 9
23 24 24 24 24 25 24 24 24 24 24 24 24 23 22 21 20 18 17 15 14 13 13 12 12 11 11 11 11 10 10 10 10 10 10 9 9 9 9 9 9 9 9 8
23 23 24 24 24 24 24 24 24 24 24 23 23 23 22 21 20 18 16 15 14 13 12 12 11 11 11 10 10 10 10 10 10 10 10 9 9 9 9 9 8 8 8 8
22 22 23 23 24 24 23 23 23 23 23 23 23 22 22 20 18 17 15 15 14 13 12 11 11 11 10 10 10 10 10 10 10 9 9 9 9 9 9 9 8 8 8 8
22 22 22 23 23 23 22 23 23 23 23 23 23 22 21 19 18 17 15 14 14 13 12 11 11 11 11 10 10 10 10 10 9 9 9 9 9 9 9 8 8 8 8 8
21 21 22 23 22 21 23 23 23 23 23 23 22 21 20 19 17 16 15 14 13 13 12 11 11 11 11 10 10 10 10 10 9 9 9 9 9 9 9 8 8 8 8 8
21 21 22 22 22 22 22 23 23 22 22 22 22 21 19 18 17 16 14 14 13 13 12 11 11 11 10 10 10 10 10 9 9 9 9 9 9 9 9 8 8 8 8 8
21 21 22 22 21 21 22 23 22 22 21 22 21 20 19 18 20 18 14 13 13 12 12 11 11 11 10 10 10 10 10 9 9 9 9 9 9 9 9 8 8 8 8 8
21 21 21 21 21 22 23 22 21 21 21 21 20 19 18 19 19 16 14 13 12 12 11 11 11 11 10 10 10 10 9 9 9 9 9 9 9 8 8 8 8 8 8 8
22 22 21 22 21 21 22 21 21 21 20 19 19 18 17 17 15 14 13 13 12 11 11 11 11 11 10 10 10 10 9 9 9 9 9 9 9 9 9 8 8 8 8 9
22 22 22 22 22 21 20 20 19 19 19 18 18 17 16 16 15 14 13 12 12 11 11 11 11 10 10 10 10 10 9 9 9 9 9 9 9 8 9 9 9 9 9 9
21 21 21 21 21 20 19 19 18 18 18 17 17 16 16 15 14 14 13 12 12 11 11 11 11 10 10 10 10 9 9 9 9 9 9 9 9 9 9 9 9 9 9 10
20 20 21 20 21 20 19 19 18 17 17 16 16 16 15 15 14 13 13 12 12 11 11 11 11 10 10 10 10 10 9 9 9 9 9 9 9 9 9 9 9 9 9 9
20 20 20 21 20 20 19 18 17 17 16 16 15 15 15 14 14 13 13 12 12 11 11 11 11 10 10 10 10 10 9 9 9 9 9 9 9 9 9 10 9 9 9 9

GEFSCGP_850_meantemp_174.txt.gz
Temperature
28 27 27 27 27 27 27 26 26 27 28 28 27 27 26 26 25 25 24 24 22 21 20 19 18 17 17 16 16 16 16 15 15 15 15 15 15 14 14 14 14 14 14 14
28 27 28 29 28 27 27 27 26 26 27 28 27 27 27 27 26 25 24 23 22 21 20 19 18 17 17 16 16 15 15 15 15 15 15 15 14 14 14 14 14 13 13 13
28 29 29 29 28 28 27 27 26 27 27 28 27 27 27 27 26 25 24 23 22 21 20 18 17 17 16 16 15 15 15 15 15 15 14 14 14 14 14 14 13 13 13 13
29 30 29 29 28 28 27 28 27 27 27 27 27 26 27 26 26 25 24 23 22 21 20 19 17 17 16 16 15 15 15 15 14 14 14 14 13 13 13 13 13 13 13 13
28 30 29 29 29 29 28 29 28 28 27 27 27 26 26 26 25 24 24 23 22 21 20 19 18 17 16 15 15 15 14 14 14 14 14 14 13 13 13 13 13 13 13 13
29 30 30 29 30 29 29 28 28 27 27 25 25 25 25 26 25 25 24 23 22 21 20 19 17 16 16 15 15 14 14 14 14 14 13 13 13 13 13 13 12 12 12 12
28 29 30 30 29 29 29 27 26 25 24 24 25 25 25 26 26 26 24 23 22 20 19 18 17 16 15 15 14 14 13 13 13 13 13 13 13 13 12 12 12 12 12 12
27 27 29 30 29 28 28 27 25 24 24 25 25 24 25 26 25 24 23 22 21 20 19 17 16 16 15 15 14 14 13 13 13 13 13 12 12 12 12 12 12 12 11 11
26 27 29 30 30 29 28 28 27 25 25 25 24 24 24 25 24 23 22 21 20 19 18 17 16 15 15 14 14 14 13 13 13 13 12 12 12 12 11 11 11 11 11 11
27 26 28 29 30 30 29 29 27 25 24 23 24 24 23 23 22 22 21 21 20 19 18 17 16 15 14 14 14 13 13 13 13 12 12 12 12 11 11 11 11 11 11 11
27 25 26 28 28 28 28 28 27 27 26 24 23 23 23 22 23 22 21 21 19 18 17 16 15 15 14 14 13 13 13 12 12 12 12 12 11 11 11 11 11 11 10 10
27 26 25 26 27 28 28 27 27 25 25 25 24 23 24 24 23 22 21 20 19 18 17 16 15 14 14 13 13 13 13 12 12 12 12 11 11 11 11 11 10 10 10 10
26 25 24 24 25 26 26 26 27 26 26 25 24 23 23 23 22 22 21 20 18 17 16 15 14 14 13 13 13 12 12 12 12 12 11 11 11 11 10 10 10 10 10 10
25 25 24 23 23 23 24 25 26 26 25 24 24 22 23 22 22 21 20 19 18 17 16 15 14 13 13 13 13 12 12 12 12 11 11 11 11 10 10 10 10 10 10 10
25 24 25 25 25 24 25 25 26 25 25 24 24 23 23 23 22 21 20 19 18 16 15 15 14 13 13 12 12 12 12 12 11 11 11 11 11 10 10 10 10 10 10 10
24 23 24 24 25 25 25 26 25 25 25 25 24 23 23 22 22 21 20 19 18 16 15 15 14 13 13 12 12 12 12 11 11 11 11 11 11 10 10 10 10 10 10 10
23 22 22 23 24 24 23 25 25 25 25 25 23 23 23 22 21 20 19 18 17 16 16 15 14 13 13 12 12 12 12 11 11 11 11 11 11 10 10 10 10 10 9 9
22 22 22 23 23 21 23 26 26 25 25 25 24 23 23 21 20 19 19 18 17 16 15 14 14 13 13 12 12 12 11 11 11 11 11 11 10 10 10 10 10 10 9 9
23 22 22 22 22 22 24 25 25 24 24 24 23 23 22 21 20 19 18 18 17 16 15 14 14 13 12 12 12 11 11 11 11 11 11 11 11 10 10 10 10 10 9 9
24 23 22 22 21 21 23 25 25 25 23 24 23 22 22 21 20 19 17 17 16 15 14 14 13 13 12 12 12 11 11 11 11 11 11 11 11 10 10 10 10 10 10 10
23 22 22 22 21 21 24 25 25 22 21 23 22 22 21 20 19 18 17 16 15 15 14 13 13 13 12 12 11 11 11 11 11 11 11 11 10 10 10 10 10 10 10 10
22 22 21 21 20 21 24 24 22 22 22 22 21 21 20 19 18 17 16 16 15 14 14 13 13 12 12 12 11 11 11 11 11 11 11 11 10 10 10 10 10 10 10 10
22 21 21 21 21 22 22 21 21 22 21 21 21 20 19 18 17 17 16 15 15 14 14 13 13 12 12 12 11 11 11 11 11 11 10 10 10 10 10 10 10 10 10 10
21 21 21 20 21 21 21 21 20 20 20 20 20 20 19 18 17 16 16 15 15 14 14 13 13 12 12 12 11 11 11 11 11 10 10 10 10 10 10 10 10 10 11 11
20 20 20 19 20 20 20 20 19 20 20 20 19 19 19 18 17 16 15 15 14 14 13 13 13 13 12 12 11 11 11 11 11 11 10 10 10 10 11 11 11 11 11 11
20 20 19 19 19 19 20 19 19 19 19 19 19 18 18 17 16 16 15 14 14 14 13 13 13 13 12 12 12 11 11 11 11 11 10 11 11 11 11 11 11 11 11 11

GEFSCGP_850_meantemp_180.txt.gz
Temperature
23 20 20 20 20 21 22 22 22 22 22 22 21 20 20 20 20 19 19 19 18 18 19 18 18 18 18 17 17 17 16 16 16 16 15 15 15 15 15 14 14 14 14 14
20 20 22 22 22 23 22 22 22 22 23 22 21 20 20 19 19 19 19 18 18 18 18 18 18 17 17 17 17 16 16 16 16 15 15 15 15 14 14 14 14 14 13 13
21 22 24 24 23 23 22 22 22 22 22 22 21 20 19 19 19 19 19 19 18 18 18 17 17 17 17 17 16 16 16 15 15 15 15 14 14 14 14 13 13 13 13 13
22 23 24 24 23 23 22 23 23 23 21 19 21 19 19 19 18 18 18 18 18 18 18 17 17 17 17 16 16 15 15 15 15 14 14 14 14 14 14 13 13 13 13 13
23 24 24 24 24 24 23 23 23 22 20 19 19 19 18 18 18 18 18 18 18 18 18 17 17 17 17 16 16 15 15 14 14 14 14 14 14 13 13 13 13 13 12 12
23 25 25 25 25 25 24 22 21 19 18 19 19 19 18 17 18 18 18 18 18 18 18 17 17 16 16 16 15 15 15 14 14 14 13 13 13 13 13 12 12 12 12 12
23 24 25 25 24 24 22 20 19 19 18 18 19 19 18 18 19 19 18 18 18 17 17 16 16 16 15 15 15 14 14 14 13 13 13 13 13 13 12 12 12 12 12 12
21 21 23 24 24 23 22 20 19 19 18 18 19 18 18 19 19 19 19 18 17 17 16 16 16 16 15 15 14 14 14 14 13 13 13 13 12 12 12 12 12 11 11 12
21 21 24 25 25 24 23 21 19 18 19 18 18 18 18 18 18 17 17 17 16 16 16 16 16 15 15 15 14 14 14 13 13 13 13 12 12 12 12 12 11 11 11 11
21 21 22 24 24 23 22 21 18 18 18 18 18 19 18 18 17 17 16 16 16 16 16 16 16 15 15 14 14 14 13 13 13 13 12 12 12 12 12 11 11 11 11 11
21 20 21 21 22 22 22 21 19 17 17 17 17 18 19 18 17 17 16 16 16 16 16 16 15 15 14 14 14 14 13 13 13 12 12 12 12 12 11 11 11 11 11 10
20 18 18 20 21 22 21 21 18 18 18 17 17 17 19 17 17 17 16 16 16 16 16 15 15 14 14 14 14 13 13 13 13 12 12 12 12 11 11 11 11 10 10 10
20 17 18 18 19 20 21 21 19 17 16 16 17 17 18 17 16 17 16 16 16 15 15 15 14 14 14 14 13 13 13 13 12 12 12 11 11 11 11 11 11 10 10 10
20 17 17 18 18 19 20 20 20 18 16 17 17 17 17 16 16 16 16 16 15 15 15 14 14 14 14 13 13 13 13 12 12 12 11 11 11 11 11 11 10 10 10 10
17 17 18 18 20 20 20 20 21 19 18 17 18 17 17 16 16 16 16 15 15 15 14 14 14 14 13 13 13 13 12 12 12 12 11 11 11 11 11 10 10 10 10 10
15 17 18 18 19 20 20 20 20 20 19 19 18 17 17 17 17 16 16 15 14 14 14 14 14 14 13 13 13 12 12 12 12 12 11 11 11 11 10 10 10 10 10 10
15 15 16 16 18 18 18 19 20 19 19 18 17 17 16 16 16 16 16 15 15 15 15 14 14 14 14 13 13 12 12 12 12 11 11 11 11 11 10 10 10 10 10 10
15 14 14 15 17 17 18 19 20 19 18 17 17 16 16 16 16 16 16 16 15 15 15 14 14 14 14 13 13 12 12 12 11 11 11 11 11 11 10 10 10 10 10 10
15 15 14 14 15 16 18 19 19 18 17 17 16 15 15 15 15 15 16 16 16 15 15 15 14 14 13 13 13 12 12 11 11 11 11 11 11 11 10 10 10 10 10 10
15 14 14 14 15 16 17 18 19 18 16 16 16 15 15 15 13 14 15 16 15 15 15 15 14 14 13 13 12 12 12 11 11 11 11 11 11 11 11 10 10 10 10 10
15 14 14 14 15 15 17 18 18 16 15 16 16 16 15 14 14 15 15 15 15 15 15 14 14 14 13 13 12 12 11 11 11 11 11 11 11 11 11 10 10 10 10 10
14 14 14 14 14 15 16 17 16 15 16 16 16 16 15 16 15 15 15 15 15 14 14 14 14 13 13 13 12 12 11 11 11 11 11 11 11 11 11 10 10 10 10 10
14 13 13 13 13 15 16 16 16 16 15 16 15 15 16 15 15 15 14 14 14 14 14 13 13 13 13 12 12 12 12 11 11 11 11 11 11 11 11 11 11 10 10 10
14 14 13 13 13 14 15 16 16 16 16 15 15 15 15 15 15 14 14 14 14 14 13 13 13 13 12 12 12 12 12 11 11 11 11 11 11 11 11 11 11 11 11 11
13 13 12 12 13 14 15 15 15 15 15 15 15 15 15 15 14 14 14 14 14 14 13 13 13 13 12 12 12 12 12 11 11 11 11 11 11 11 11 11 11 11 11 11
13 12 12 12 13 13 14 15 15 15 15 15 14 14 15 14 14 14 14 14 14 14 13 13 13 13 12 12 12 12 12 12 11 11 11 11 11 11 11 11 11 11 11 11

GEFSCGP_850_meantemp_186.txt.gz
Temperature
20 18 18 19 19 20 20 19 19 19 20 19 18 18 18 18 18 17 17 17 18 18 18 18 18 18 18 17 17 17 16 16 16 15 15 15 15 15 14 14 14 14 14 14
19 19 20 20 20 20 19 19 19 19 19 19 18 18 18 17 17 17 17 17 18 18 17 18 18 18 17 17 17 16 16 16 15 15 15 14 14 14 14 14 14 13 13 13
21 21 21 21 20 20 20 19 20 19 19 18 19 18 18 18 17 18 18 18 18 18 18 18 18 17 17 17 16 16 16 15 15 15 14 14 14 14 14 13 13 13 13 13
20 20 21 21 21 21 20 20 20 20 18 17 18 17 18 17 17 17 17 17 18 18 18 18 17 17 17 16 16 16 15 15 15 14 14 14 14 13 13 13 13 13 13 12
21 21 21 21 21 21 21 20 19 19 18 17 17 17 17 17 17 17 17 17 17 17 17 17 17 17 16 16 16 15 15 15 14 14 14 13 13 13 13 13 13 13 12 12
20 21 21 22 22 21 20 19 18 16 16 17 18 17 17 16 17 17 17 17 18 17 17 17 17 16 16 15 15 15 15 14 14 13 13 13 13 13 13 13 12 12 12 12
20 21 21 22 21 20 19 18 17 18 16 17 17 17 17 17 17 17 17 17 17 17 17 17 16 16 16 15 15 15 14 14 14 13 13 13 13 12 12 12 12 12 12 11
19 19 21 21 21 20 19 18 18 18 17 16 17 17 17 17 17 17 17 17 17 17 17 16 16 16 16 15 15 14 14 14 13 13 13 13 12 12 12 12 12 11 11 11
18 19 20 21 21 20 20 18 17 16 17 16 16 17 17 17 17 16 16 16 16 16 16 16 16 16 15 15 15 14 14 13 13 13 13 12 12 12 12 12 11 11 11 11
18 18 19 20 20 20 19 17 15 16 16 16 17 17 16 17 16 16 15 16 16 16 16 16 16 16 15 15 14 14 13 13 13 13 13 12 12 12 12 11 11 11 11 11
17 17 18 19 19 19 19 18 15 14 15 16 16 16 17 16 16 15 15 15 16 16 15 15 15 15 15 14 14 14 13 13 13 13 12 12 12 12 11 11 11 11 11 11
16 15 16 17 18 19 19 18 15 16 16 14 15 15 16 15 15 15 15 15 15 15 15 15 15 15 14 14 14 14 13 13 13 12 12 12 12 11 11 11 11 11 11 10
16 15 15 16 17 17 17 17 16 14 13 13 14 16 16 15 15 15 15 15 15 15 15 15 14 14 14 14 14 13 13 13 12 12 12 12 11 11 11 11 11 11 10 10
16 14 15 16 16 17 17 17 16 15 14 14 15 16 15 14 14 14 14 14 14 14 14 14 14 14 14 14 13 13 13 12 12 12 12 11 11 11 11 11 11 11 10 10
14 14 15 15 16 17 17 17 17 16 15 15 16 15 15 14 14 13 14 14 14 14 14 14 14 14 14 13 13 13 13 12 12 12 12 11 11 11 11 11 10 10 10 10
12 13 14 15 16 16 16 16 16 16 16 15 15 15 14 14 14 13 13 13 13 13 13 14 14 13 13 13 13 13 12 12 12 12 12 11 11 11 11 10 10 10 10 10
12 12 13 13 15 16 15 16 16 16 15 15 15 14 13 12 12 13 13 13 13 13 13 13 13 13 13 13 13 12 12 12 12 12 12 11 11 11 11 10 10 10 10 10
11 11 11 12 14 15 15 15 16 15 14 14 14 13 12 12 13 13 13 13 13 13 13 13 13 13 13 13 13 12 12 12 12 11 11 11 11 11 10 10 10 10 10 10
11 11 11 11 13 14 15 15 15 15 14 13 13 12 12 12 13 13 14 14 14 14 13 13 13 13 13 13 12 12 12 12 11 11 11 11 11 11 10 10 10 10 10 10
11 11 11 11 13 14 14 15 15 15 14 13 12 11 11 12 11 12 13 13 13 14 13 13 13 13 13 12 12 12 12 12 11 11 11 11 11 11 10 10 10 10 10 10
12 11 11 11 12 13 14 14 15 14 13 13 13 12 12 11 12 13 13 13 13 13 13 13 13 13 12 12 12 12 12 12 12 11 11 11 11 11 10 10 10 10 10 10
11 11 11 11 11 12 13 14 13 12 13 13 13 13 12 12 13 13 13 13 13 13 13 13 13 12 12 12 12 12 12 12 12 11 11 11 11 11 10 10 10 10 10 10
10 11 10 10 11 12 13 13 13 13 13 13 13 13 13 12 12 12 13 13 12 12 13 13 12 12 12 12 12 12 12 12 11 11 11 11 11 11 11 11 11 10 10 10
10 10 10 10 11 12 12 13 13 13 13 13 13 13 12 12 12 12 12 12 12 12 12 12 12 12 12 12 12 12 12 11 11 11 11 11 11 11 11 11 11 11 11 11
10 10 9 10 10 11 12 13 13 13 13 13 12 12 12 12 12 12 12 12 12 12 12 12 12 12 12 12 12 12 11 11 11 11 11 11 11 11 11 11 11 11 11 11
9 10 9 10 11 10 11 12 12 12 12 12 12 12 12 12 12 12 12 12 12 12 12 12 12 12 12 12 11 11 11 11 11 11 11 11 11 11 11 11 11 11 11 11

GEFSCGP_850_meantemp_192.txt.gz
Temperature
26 27 27 27 27 27 27 27 27 27 27 26 26 26 26 25 24 24 23 23 22 21 20 19 18 18 17 17 17 17 16 16 16 15 15 15 15 15 14 14 14 14 13 13
27 27 27 27 27 27 27 27 27 27 26 26 26 26 26 25 25 24 23 22 22 21 20 19 18 17 17 17 17 16 16 16 16 15 15 15 14 14 14 14 14 13 13 13
27 27 27 27 27 26 27 27 27 26 26 26 26 26 26 26 24 23 23 22 21 21 20 19 18 17 17 16 16 16 16 16 15 15 15 14 14 14 14 14 13 13 13 13
27 27 27 27 27 27 27 27 27 26 26 27 26 26 26 26 25 24 23 22 21 20 20 19 18 18 17 16 16 16 16 15 15 15 14 14 14 14 14 13 13 13 13 12
27 27 26 26 26 26 27 27 26 26 26 26 27 26 27 26 25 24 24 22 21 20 20 19 18 18 17 16 16 15 15 15 14 14 14 14 14 14 13 13 13 13 12 12
27 27 27 26 27 26 26 26 26 26 27 25 26 26 26 26 24 24 23 22 21 20 19 19 18 17 17 16 16 15 15 14 14 14 14 14 13 13 13 13 13 12 12 12
26 27 27 26 26 26 26 26 25 25 25 26 26 25 25 24 24 23 22 21 20 19 19 18 17 17 16 16 15 15 14 14 14 14 13 13 13 13 13 12 12 12 12 12
25 26 26 26 26 25 26 26 25 24 25 26 26 25 25 24 23 22 21 20 19 19 18 18 17 16 16 15 15 15 14 14 14 13 13 13 13 13 12 12 12 12 12 12
24 24 26 26 26 26 26 26 26 25 25 25 26 25 24 23 22 22 21 20 19 18 18 17 16 16 15 15 15 14 14 14 13 13 13 13 12 12 12 12 12 12 11 11
24 23 25 26 26 26 26 26 25 24 23 24 25 25 24 22 22 21 21 19 19 18 17 16 16 15 15 14 14 14 14 13 13 13 13 12 12 12 12 12 12 11 11 11
23 22 24 25 25 24 24 25 24 24 24 23 23 24 23 22 21 20 20 19 18 17 16 16 15 15 14 14 14 13 13 13 13 13 13 12 12 12 12 12 12 11 11 11
22 22 23 24 25 25 24 24 24 23 23 23 23 23 22 22 21 20 19 17 17 16 16 15 15 14 14 14 13 13 13 13 13 13 12 12 12 12 12 11 11 11 11 11
21 21 21 23 24 24 24 24 24 23 23 23 23 23 21 21 20 19 18 17 16 15 15 14 14 14 14 13 13 13 13 13 13 12 12 12 12 11 11 11 11 11 11 11
20 20 21 21 22 22 22 23 23 23 22 22 23 22 22 20 19 18 17 16 16 15 14 14 14 13 13 13 13 13 12 12 12 12 12 12 12 11 11 11 11 11 11 11
19 20 21 21 22 22 22 22 22 22 22 22 22 22 21 20 19 17 16 16 15 15 14 14 13 13 13 13 13 12 12 12 12 12 12 12 11 11 11 11 11 11 11 10
19 19 20 21 22 22 21 21 21 21 21 21 21 21 20 19 18 17 16 15 15 15 14 13 13 13 13 13 12 12 12 12 12 12 12 11 11 11 11 11 11 11 10 10
19 18 19 20 21 21 20 21 21 20 20 20 20 20 19 18 17 16 15 15 15 14 14 13 13 13 12 12 12 12 12 12 12 12 11 11 11 11 11 11 11 10 10 10
17 18 19 20 20 19 20 20 20 20 19 19 19 18 18 17 16 16 15 15 14 13 13 13 13 12 12 12 12 12 12 12 12 12 11 11 11 11 11 11 11 10 10 10
17 17 18 19 20 20 20 20 19 19 19 18 18 17 17 16 16 16 15 14 13 13 12 12 12 12 12 12 12 12 12 12 12 12 11 11 11 11 11 11 11 10 10 10
18 17 18 19 18 18 19 19 19 19 18 17 17 16 16 16 17 16 14 13 13 12 12 12 12 12 12 12 11 12 12 12 12 11 11 11 11 11 11 11 11 11 10 10
18 18 18 18 18 19 18 18 18 18 17 16 16 15 15 15 15 14 13 12 12 12 12 12 12 12 12 12 11 11 11 11 11 11 11 11 11 11 11 11 11 11 10 10
18 18 18 18 18 18 17 18 17 16 15 15 15 15 14 14 13 13 12 12 12 12 12 12 12 12 11 11 11 11 11 11 11 11 11 11 11 11 11 11 11 11 11 11
17 17 17 17 17 17 16 16 15 14 14 14 14 14 13 13 13 12 12 12 12 12 12 12 11 11 11 11 11 11 11 11 11 11 11 11 11 11 11 11 11 11 11 11
17 16 16 16 17 16 15 15 14 14 14 14 13 13 13 13 12 12 12 12 11 11 11 11 11 11 11 11 11 11 11 11 11 11 11 11 11 11 11 11 11 11 11 12
16 16 16 16 16 16 15 15 14 13 13 13 13 13 13 12 12 12 11 11 11 11 11 11 11 11 11 11 11 11 11 11 11 11 11 11 11 11 11 11 11 11 11 11
16 16 15 16 15 15 14 14 13 13 13 13 12 12 12 12 12 12 11 11 11 11 11 11 11 11 11 11 11 11 11 11 11 11 11 12 12 12 12 12 11 12 11 11

GEFSCGP_850_meantemp_198.txt.gz
Temperature
28 28 28 28 29 28 28 28 28 28 29 28 28 27 27 27 26 25 25 25 24 23 23 22 21 20 20 19 19 18 18 17 17 17 16 16 16 16 16 15 15 15 15 15
28 28 29 30 30 29 29 28 28 28 29 29 28 27 27 26 26 25 24 24 24 23 22 22 21 20 20 19 18 18 17 17 17 16 16 16 16 15 15 15 15 15 14 14
28 30 30 30 30 29 28 28 28 27 28 28 28 26 26 26 25 25 24 24 24 23 22 21 21 20 19 19 18 18 17 17 17 16 16 16 15 15 15 15 14 14 14 14
29 30 30 29 29 28 27 28 28 28 27 27 27 26 25 25 25 25 24 24 23 23 22 21 20 20 19 18 18 17 17 17 16 16 16 15 15 15 15 15 14 14 14 14
29 30 29 28 29 28 28 29 29 28 28 27 27 26 26 25 24 24 23 23 22 22 21 21 20 19 19 18 18 17 17 16 16 16 15 15 15 15 14 14 14 14 14 14
29 30 30 29 29 29 29 28 28 28 28 26 27 26 25 24 24 23 23 22 21 21 21 20 20 19 18 18 17 17 16 16 16 15 15 15 14 14 14 14 14 14 14 13
28 29 29 29 28 29 28 27 25 25 25 25 27 26 24 24 24 23 22 21 21 21 20 20 19 19 18 17 17 16 16 16 15 15 14 14 14 14 14 14 14 13 13 13
26 26 28 29 28 27 27 26 24 23 24 25 26 25 24 24 24 22 21 21 20 20 20 19 19 18 17 17 16 16 15 15 15 14 14 14 14 14 14 14 13 13 13 13
24 25 28 29 29 28 27 27 27 25 25 24 25 25 24 24 23 22 21 20 19 19 19 18 18 17 17 16 16 15 15 15 14 14 14 14 14 14 13 13 13 13 13 13
25 24 26 28 29 28 28 27 26 25 23 23 24 24 23 22 21 21 20 20 19 18 18 18 17 17 16 16 15 15 15 14 14 14 14 14 14 13 13 13 13 13 13 13
25 24 25 27 26 26 27 26 25 25 24 23 22 23 23 22 21 21 20 19 18 18 17 17 17 16 16 16 15 15 14 14 14 14 14 13 13 13 13 13 13 13 12 12
24 23 23 25 27 27 26 25 25 23 22 23 22 22 23 22 22 21 20 19 18 17 17 17 16 16 15 15 15 14 14 14 14 14 13 13 13 13 13 13 13 13 12 12
23 22 21 23 25 25 25 25 25 24 23 22 21 21 22 21 21 20 19 19 18 17 17 16 16 15 15 15 14 14 14 14 14 13 13 13 13 13 13 13 12 12 12 12
22 22 21 21 22 23 23 24 25 24 23 21 22 21 21 20 20 20 19 18 17 17 16 16 15 15 15 14 14 14 14 14 13 13 13 13 13 13 12 12 12 12 12 12
22 21 22 22 23 24 24 24 24 24 23 22 22 21 21 20 20 19 18 18 17 16 16 15 15 15 14 14 14 14 13 13 13 13 13 13 13 12 12 12 12 12 12 12
22 21 21 22 23 24 23 24 24 24 23 23 22 21 20 20 20 18 18 17 17 16 15 15 15 14 14 14 14 13 13 13 13 13 13 13 13 12 12 12 12 12 12 12
21 20 20 21 23 23 22 23 23 23 22 22 21 20 20 20 19 18 17 17 16 15 15 14 14 14 14 14 13 13 13 13 13 13 13 12 12 12 12 12 12 12 12 12
20 20 20 20 21 20 21 22 22 22 21 21 21 20 20 19 18 17 17 16 15 15 14 14 14 14 13 13 13 13 13 13 13 13 12 12 12 12 12 12 12 12 12 11
21 20 19 20 20 20 21 21 21 21 20 20 20 20 19 19 18 17 16 16 15 14 14 13 13 13 13 13 13 13 13 13 13 12 12 12 12 12 12 12 12 12 12 12
22 21 20 20 19 18 19 21 21 21 19 19 19 19 18 18 17 17 16 15 15 14 13 13 13 13 13 13 13 13 13 13 13 12 12 12 12 12 12 12 12 12 12 12
21 20 20 20 19 19 20 21 21 19 17 18 18 18 17 17 16 15 15 15 14 14 13 13 13 13 13 13 13 12 12 12 12 12 12 12 12 12 12 12 12 12 12 12
20 20 20 20 19 18 20 20 18 17 17 17 17 17 16 16 15 15 15 14 14 13 13 13 13 13 12 12 12 12 12 12 12 12 12 12 12 12 12 12 12 12 12 12
20 20 19 19 19 19 19 18 18 17 17 17 17 17 16 16 15 15 14 14 13 13 13 13 13 12 12 12 12 12 12 12 12 12 12 12 12 12 12 12 12 12 12 12
20 20 19 19 19 19 18 18 17 17 16 16 16 16 16 15 15 14 14 13 13 13 13 12 12 12 12 12 12 12 12 12 12 12 12 12 12 12 12 12 12 12 12 12
19 19 19 18 19 18 18 17 16 16 16 16 16 16 15 15 14 14 13 13 13 13 12 12 12 12 12 12 12 12 12 12 12 12 12 12 12 12 12 12 12 12 12 12
18 18 18 17 17 17 16 16 16 16 16 16 15 15 15 14 14 14 13 13 13 12 12 12 12 12 12 12 12 12 12 12 12 12 12 12 12 12 12 13 13 12 13 13

GEFSCGP_850_meantemp_204.txt.gz
Temperature
23 20 20 21 21 22 22 22 22 22 23 22 21 21 21 21 21 20 20 20 20 19 20 20 20 20 20 20 19 19 18 18 17 17 17 17 16 16 16 15 15 15 15 15
21 21 22 23 23 23 23 22 22 22 23 22 20 20 20 20 20 20 19 19 19 19 19 19 19 19 19 19 19 19 18 18 17 17 17 16 16 16 15 15 15 15 15 14
22 23 24 24 23 23 23 22 22 22 22 21 21 20 19 20 19 19 19 19 19 19 19 19 19 19 19 19 18 18 18 18 17 17 16 16 15 15 15 15 15 15 14 14
23 24 25 24 24 23 22 23 23 23 21 19 21 19 19 19 18 18 18 18 18 18 18 18 19 18 18 18 18 18 17 17 17 16 16 16 15 15 15 15 14 14 14 14
23 24 24 23 24 24 23 23 23 22 21 19 19 18 18 18 18 17 17 17 18 18 18 18 18 18 18 18 17 17 17 17 16 16 15 15 15 15 14 14 14 14 14 14
23 24 24 24 25 24 23 22 21 19 18 19 19 18 18 17 17 17 17 17 17 17 17 17 17 18 17 17 17 17 16 16 16 15 15 15 14 14 14 14 14 14 14 13
22 23 24 24 23 23 21 19 18 18 17 18 19 18 17 18 18 17 17 17 17 17 17 17 17 17 17 17 16 16 16 16 15 15 15 14 14 14 14 14 14 13 13 13
20 20 22 23 23 22 21 19 18 18 18 18 18 18 17 18 18 18 17 17 16 17 17 16 16 17 16 16 16 16 15 15 15 14 14 14 14 14 14 14 13 13 13 13
19 20 22 23 23 23 21 19 19 17 18 17 17 18 18 18 17 17 16 16 16 16 16 16 16 16 16 16 16 15 15 15 14 14 14 14 14 13 13 13 13 13 13 12
20 19 20 22 22 22 20 19 17 17 17 17 18 17 16 17 16 16 16 15 16 15 16 16 15 15 15 15 15 15 14 14 14 14 14 13 13 13 13 13 13 13 12 12
18 18 19 20 20 20 20 19 17 15 16 16 16 16 17 16 16 15 15 15 15 15 15 15 15 15 15 15 14 14 14 14 14 13 13 13 13 13 13 13 13 13 12 12
18 16 16 18 20 21 20 19 17 16 16 15 15 15 17 16 16 15 15 15 15 15 15 15 15 15 14 14 14 14 13 13 13 13 13 13 13 13 13 13 13 12 12 12
18 16 16 17 18 18 19 19 18 16 15 15 15 16 16 16 15 16 15 15 15 15 15 14 14 14 14 14 14 13 13 13 13 13 13 13 13 13 13 12 12 12 12 12
18 15 16 16 17 17 18 19 19 17 15 15 16 16 16 15 14 15 15 15 14 14 14 14 14 14 14 13 13 13 13 13 13 13 13 13 13 13 12 12 12 12 12 12
16 16 17 17 18 18 19 19 19 18 17 16 16 16 15 14 14 14 15 14 14 14 14 14 13 13 13 13 13 13 13 13 13 13 13 13 12 12 12 12 12 12 12 12
15 16 16 17 18 18 18 18 18 18 17 16 16 15 15 15 15 14 14 14 14 14 13 13 13 13 13 13 13 13 13 13 13 13 12 12 12 12 12 12 12 12 12 12
15 15 15 15 17 17 16 17 17 17 16 16 15 15 14 14 14 14 14 14 14 13 13 13 13 13 13 12 12 12 12 12 12 12 12 12 12 12 12 12 12 12 12 12
15 14 13 14 15 16 16 17 17 16 15 15 14 14 14 14 15 14 14 14 14 13 13 13 13 13 12 12 12 12 12 12 12 12 12 12 12 12 12 12 12 12 12 12
14 14 14 13 14 15 17 17 17 16 15 15 14 14 14 15 14 14 14 14 14 14 13 13 13 13 12 12 12 12 12 12 12 12 12 12 12 12 12 12 12 12 12 11
15 14 14 14 14 14 15 17 17 16 14 15 14 14 14 14 12 12 14 14 13 13 13 13 13 12 12 12 12 12 12 12 12 12 12 12 12 12 12 12 12 11 11 11
14 14 14 13 14 14 15 17 17 15 13 14 14 14 14 13 13 14 14 13 13 13 13 13 12 12 12 12 12 12 12 12 12 12 12 12 12 12 12 12 12 11 11 12
14 13 13 13 13 14 15 16 14 13 15 15 15 14 14 14 14 13 13 13 13 13 13 12 12 12 12 12 12 12 12 12 12 12 12 12 12 12 12 12 12 11 12 12
14 13 12 12 13 14 15 15 15 15 15 15 14 14 14 14 13 13 13 13 12 12 12 12 12 12 12 12 12 12 12 12 12 12 12 12 12 12 12 12 12 12 12 12
13 14 12 12 13 15 15 15 15 15 15 15 15 14 14 14 13 13 13 12 12 12 12 12 12 12 12 12 12 12 12 12 12 12 12 12 12 12 12 12 12 12 12 12
13 13 12 12 13 14 15 15 15 15 15 15 14 14 14 13 13 13 12 12 12 12 12 12 12 12 12 12 12 12 12 12 12 12 12 12 12 12 12 12 12 12 12 12
13 12 12 12 13 13 14 14 14 14 14 14 14 14 13 13 13 13 12 12 12 12 12 12 12 12 12 12 12 12 12 12 12 12 12 12 12 12 12 12 12 12 12 12

GEFSCGP_850_meantemp_210.txt.gz
Temperature
20 18 18 19 19 20 20 20 19 19 19 18 17 17 17 17 17 16 16 17 17 17 18 18 18 19 18 18 18 18 17 17 17 17 17 16 16 16 15 15 15 15 14 14
19 19 20 20 20 19 20 19 19 19 19 19 17 17 17 17 16 16 16 16 17 17 17 17 18 18 18 18 18 17 17 17 16 16 16 16 15 15 15 15 15 14 14 14
21 21 21 21 20 20 20 19 19 19 19 18 18 18 17 17 17 17 16 16 17 17 17 17 17 17 17 17 17 17 17 16 16 16 15 15 15 15 15 14 14 14 14 14
20 20 21 21 21 20 20 20 20 19 18 17 18 17 17 16 16 16 16 16 16 16 16 16 16 17 17 17 17 16 16 16 16 15 15 15 15 14 14 14 14 14 14 13
20 21 21 21 21 21 20 20 19 19 17 17 17 16 16 16 16 16 15 16 16 16 16 16 16 16 16 16 16 16 16 16 15 15 15 15 14 14 14 14 14 14 13 13
20 21 21 21 21 21 20 18 18 16 16 17 17 17 16 15 16 16 16 15 15 16 16 16 16 16 16 16 16 16 16 15 15 15 15 14 14 14 14 14 13 13 13 13
19 20 20 21 20 20 18 17 17 17 16 16 16 16 16 16 16 16 15 15 15 15 15 15 15 15 15 15 15 15 15 15 15 15 14 14 14 14 14 13 13 13 13 13
18 19 20 20 20 19 18 17 16 17 16 16 16 16 16 16 16 16 15 15 15 15 15 15 15 15 15 15 15 14 14 14 14 14 14 14 14 13 13 13 13 13 13 12
18 19 20 20 19 19 18 16 16 15 16 15 15 16 16 16 15 15 15 14 14 14 14 14 14 15 14 14 14 14 14 14 14 14 14 13 13 13 13 13 13 13 13 12
18 18 19 19 19 18 17 16 14 14 15 16 16 16 15 15 15 14 13 13 14 14 14 14 14 14 14 14 14 14 14 14 13 13 13 13 13 13 13 13 13 12 12 12
17 17 17 18 18 18 17 16 14 13 14 15 15 15 15 15 14 13 13 13 13 14 14 14 14 14 14 14 14 13 13 13 13 13 13 13 13 13 13 13 12 12 12 12
15 14 15 17 17 17 17 16 14 15 14 13 13 14 15 14 14 13 13 13 14 13 13 14 14 13 14 13 13 13 13 13 13 13 13 13 13 12 12 12 12 12 12 12
15 15 15 16 16 16 16 16 14 13 12 13 13 15 14 13 13 13 13 13 13 13 13 13 13 13 13 13 13 13 13 13 13 12 12 12 12 12 12 12 12 12 12 12
15 14 15 16 16 16 16 16 15 14 13 13 14 14 14 13 13 13 13 13 13 13 13 13 13 13 12 12 12 12 12 12 12 12 12 12 12 12 12 12 12 12 11 11
14 15 15 15 16 16 16 16 16 15 14 14 15 14 14 13 13 13 13 13 13 13 13 13 12 12 12 12 12 12 12 12 12 12 12 12 12 11 11 11 11 11 11 11
12 14 15 15 16 16 15 15 15 15 15 14 14 14 13 13 13 13 13 13 13 13 12 12 12 12 12 12 12 12 12 12 12 12 11 11 11 11 11 11 11 11 11 11
12 13 14 14 15 16 15 15 15 15 14 14 14 13 12 12 12 12 13 13 13 13 12 12 12 12 12 12 12 11 11 11 11 11 11 11 11 11 11 11 11 11 11 11
12 11 11 12 14 15 15 15 15 15 14 13 13 13 12 12 13 13 13 13 13 13 12 12 12 12 12 12 11 11 11 11 11 11 11 11 11 11 11 11 11 11 11 11
11 12 11 11 13 14 15 15 14 14 14 13 12 12 12 13 12 13 13 13 13 13 13 12 12 12 12 12 11 11 11 11 11 11 11 11 11 11 11 11 11 11 11 11
11 11 11 11 14 14 14 15 15 14 13 13 13 12 12 12 11 12 13 13 13 13 12 12 12 12 12 11 11 11 11 11 11 11 11 11 11 11 11 11 11 11 11 11
12 11 11 11 12 13 14 14 15 14 13 13 13 13 12 12 12 13 13 13 13 12 12 12 12 12 12 11 11 11 11 11 11 11 11 11 11 11 11 11 11 11 11 11
12 11 11 11 12 13 14 13 13 12 13 13 13 13 13 13 13 13 13 13 12 12 12 12 11 11 11 11 11 11 11 11 11 11 11 11 11 11 11 11 11 11 11 11
11 11 10 11 11 13 13 13 14 14 13 14 14 13 13 13 13 13 12 12 12 12 12 11 11 11 11 11 11 11 11 11 11 11 11 11 11 11 11 11 11 11 11 11
11 10 10 10 11 13 14 14 14 14 14 14 14 13 13 13 13 12 12 12 12 12 11 11 11 11 11 11 11 11 11 11 11 11 11 11 11 11 11 11 11 11 11 11
10 10 10 10 11 12 13 14 14 14 13 13 13 13 13 13 12 12 12 12 12 11 11 11 11 11 11 11 11 11 11 11 11 11 11 11 11 11 11 11 11 11 11 11
10 10 10 11 12 11 13 13 13 13 13 13 13 13 13 12 12 12 12 12 11 11 11 11 11 11 11 11 11 11 11 11 11 11 11 11 11 11 11 11 11 11 11 11

GEFSCGP_850_meantemp_216.txt.gz
Temperature
26 27 27 27 27 27 27 26 26 26 26 25 25 24 23 22 22 22 21 20 20 19 18 17 17 16 16 16 17 17 17 16 16 16 16 16 15 15 15 15 15 15 14 14
27 27 27 27 27 26 26 26 26 25 25 25 25 24 24 23 22 21 21 20 19 19 18 17 17 16 16 16 16 16 16 16 16 16 16 15 15 15 15 14 14 14 14 14
27 27 27 26 26 26 26 26 26 25 25 25 25 24 24 23 22 21 20 20 19 19 18 17 17 16 16 16 16 16 16 16 16 15 15 15 14 14 14 14 14 14 14 14
27 27 26 26 26 26 26 26 26 25 25 26 25 25 24 23 22 21 20 19 19 18 18 17 17 16 16 16 16 16 16 15 15 15 14 14 14 14 14 14 14 14 14 13
26 26 26 26 26 26 26 26 26 26 26 26 25 25 25 24 22 22 20 19 18 18 17 17 16 16 16 16 16 15 15 15 15 15 14 14 14 14 14 13 13 13 13 13
27 26 26 26 26 25 25 26 25 25 26 25 25 25 24 23 22 22 21 19 18 17 17 16 16 16 15 15 15 15 15 15 15 14 14 14 14 14 13 13 13 13 13 13
26 26 26 26 26 26 26 25 25 25 25 25 25 24 23 22 21 21 20 19 18 17 16 16 16 15 15 15 15 14 14 14 14 14 14 14 14 13 13 13 13 13 13 13
26 26 26 25 25 25 25 25 24 24 24 25 24 24 23 21 20 20 19 18 17 17 16 16 15 15 15 14 14 14 14 14 14 14 14 14 13 13 13 13 13 13 13 13
25 25 25 25 25 25 25 25 25 24 24 24 24 23 22 21 21 20 19 18 17 16 16 15 15 15 14 14 14 14 13 13 13 13 13 13 13 13 13 13 13 13 13 13
24 24 25 25 25 25 25 25 24 24 23 23 23 23 23 21 21 20 19 18 17 16 15 15 15 14 14 14 13 13 13 13 13 13 12 13 13 12 12 13 13 13 12 12
24 23 24 25 24 24 24 24 24 24 23 22 22 22 21 21 20 20 19 18 17 16 15 15 14 14 14 13 13 13 13 13 12 12 12 12 12 12 12 12 12 12 12 12
23 23 24 24 24 24 24 24 23 22 22 22 22 22 21 20 20 19 18 17 16 16 15 15 14 14 14 13 13 12 12 12 12 12 12 12 12 12 12 12 12 12 12 12
22 22 23 23 23 23 23 23 23 23 23 22 22 21 20 20 19 18 18 17 16 15 15 14 14 14 13 13 12 12 12 12 12 12 12 12 11 11 11 11 12 12 12 12
21 22 22 22 22 23 23 23 23 23 22 22 22 21 21 20 19 18 17 16 16 15 14 14 14 13 13 13 12 12 12 12 12 11 11 11 11 11 11 11 11 11 12 11
21 22 22 22 23 23 22 22 22 22 22 21 21 20 20 19 19 18 17 16 16 15 14 14 14 13 13 12 12 12 12 11 11 11 11 11 11 11 11 11 11 11 11 11
21 21 22 22 22 22 21 22 22 21 21 21 20 20 20 18 18 17 16 16 15 15 14 14 13 13 13 12 12 12 11 11 11 11 11 11 11 11 11 11 11 11 11 11
21 20 21 22 22 22 21 21 21 20 21 20 20 19 19 18 17 17 16 16 15 14 14 14 13 13 12 12 12 11 11 11 11 11 11 11 11 11 11 11 11 11 11 11
20 20 21 21 21 20 20 20 20 20 20 20 19 19 18 18 17 16 16 15 15 14 14 13 13 12 12 12 11 11 11 11 11 11 11 11 11 11 11 11 11 11 10 11
19 20 21 21 21 21 20 20 20 19 19 19 19 18 18 17 17 17 15 14 14 14 13 13 12 12 12 12 11 11 11 11 11 11 11 11 11 11 11 11 11 10 10 10
19 20 20 20 20 20 20 20 19 19 19 18 18 17 17 17 18 17 15 14 14 13 13 12 12 12 12 12 11 11 11 11 11 11 11 11 11 11 11 11 11 10 10 10
20 20 20 20 20 20 20 19 19 19 18 17 17 16 16 16 16 15 14 13 13 13 12 12 12 12 12 11 11 11 11 11 11 11 11 11 11 11 11 11 10 10 10 10
20 20 19 20 19 19 18 19 18 17 16 16 16 16 15 15 15 14 14 13 13 13 12 12 12 11 11 11 11 11 11 11 11 11 11 11 10 10 11 10 10 10 10 10
19 19 20 19 19 18 18 17 17 16 16 16 15 15 15 14 14 14 13 13 13 12 12 12 12 11 11 11 11 11 11 11 11 11 11 10 10 10 10 10 10 10 10 11
19 18 18 18 19 18 17 17 16 16 16 15 15 14 14 14 14 14 13 13 12 12 12 12 11 11 11 11 11 11 11 11 11 10 10 10 10 10 10 10 10 11 11 11
19 18 18 18 18 18 17 16 16 15 15 15 14 14 14 14 14 13 13 13 12 12 12 11 11 11 11 11 11 11 11 11 11 11 11 11 11 11 10 10 10 10 10 10
18 18 18 18 18 17 17 16 15 15 15 15 14 14 14 14 13 13 13 12 12 12 11 11 11 11 11 11 11 11 11 11 11 11 11 11 11 11 11 11 11 11 10 10

GEFSCGP_850_meantemp_222.txt.gz
Temperature
28 27 27 28 28 29 29 28 27 28 29 28 27 26 26 25 25 24 24 23 22 21 20 19 19 18 18 17 17 17 17 17 17 17 16 16 16 16 16 16 15 15 15 15
27 27 28 29 29 29 28 28 27 28 29 28 27 26 26 25 25 24 23 23 22 21 20 19 19 18 18 17 17 17 17 16 16 16 16 16 16 16 16 15 15 15 15 15
28 29 30 29 29 28 28 28 28 28 28 28 27 25 25 25 25 24 23 23 22 21 20 19 19 18 18 17 17 16 16 16 16 16 16 16 16 16 15 15 15 15 15 15
29 30 30 29 29 28 27 29 28 28 27 27 27 25 24 25 24 24 24 23 22 21 20 19 19 18 18 17 17 16 16 16 16 16 15 15 15 15 15 15 15 15 14 14
29 30 30 29 29 29 28 29 29 28 28 27 27 25 24 24 23 23 23 23 22 21 20 19 19 18 17 17 16 16 16 15 15 15 15 15 14 14 14 14 14 14 14 14
29 30 30 30 30 30 29 29 28 28 28 26 26 25 23 23 23 23 22 22 22 21 20 19 18 18 17 17 16 16 15 15 15 15 14 14 14 14 14 14 14 14 14 14
28 29 30 30 29 29 28 27 25 25 25 24 26 25 23 23 24 23 22 21 21 20 20 19 18 17 17 16 16 15 15 15 15 14 14 14 14 14 14 14 14 14 14 14
27 28 29 29 29 28 28 27 25 24 24 25 26 24 22 23 23 23 22 21 21 20 19 18 17 17 16 16 15 15 15 15 14 14 14 14 14 14 13 13 13 13 13 13
27 27 29 30 30 28 27 27 28 26 25 25 25 23 22 23 23 22 22 21 21 20 19 18 17 17 16 16 15 15 15 14 14 14 14 14 14 13 13 13 13 13 13 13
27 26 28 29 29 29 28 28 27 25 24 23 24 23 21 21 22 22 22 21 20 19 18 18 17 16 16 15 15 15 15 14 14 14 13 14 13 13 13 13 13 13 13 13
27 26 27 28 27 27 27 27 26 26 25 23 22 22 23 22 22 22 22 21 20 19 18 18 17 16 16 15 15 15 14 14 14 14 13 13 13 13 13 13 13 13 13 12
26 25 24 26 28 28 27 27 26 24 24 24 23 22 23 22 22 22 21 20 19 18 18 17 17 16 16 15 15 14 14 14 14 13 13 13 13 13 13 12 12 12 12 12
25 24 23 25 26 27 26 27 27 26 25 24 23 22 23 23 22 22 21 20 19 18 18 17 16 16 15 15 14 14 14 14 13 13 13 13 13 13 12 12 12 12 12 12
24 23 23 23 24 25 26 26 26 26 24 23 23 22 22 22 22 21 20 20 19 18 17 17 16 15 15 14 14 14 14 13 13 13 13 13 13 12 12 12 12 12 12 12
24 23 24 24 25 26 26 26 26 25 24 23 23 22 22 22 22 21 20 19 18 18 17 16 16 15 15 14 14 14 13 13 13 13 13 13 13 12 12 12 12 12 12 12
24 23 23 24 25 26 25 25 25 25 24 24 23 22 22 21 21 20 20 19 18 17 17 16 15 15 14 14 14 13 13 13 13 13 13 13 12 12 12 12 12 11 11 11
24 23 23 23 25 25 24 24 25 24 24 23 22 22 22 21 21 20 19 18 18 17 16 15 15 14 14 14 13 13 13 13 13 13 12 12 12 12 12 12 12 11 11 11
23 22 22 23 23 22 23 25 25 24 23 23 22 22 21 21 20 19 18 18 17 16 16 15 14 14 14 14 13 13 13 13 13 13 12 12 12 12 12 12 11 11 11 11
23 22 22 22 22 23 24 24 24 23 22 22 22 21 21 20 20 19 18 17 17 16 15 15 14 14 14 13 13 13 13 13 13 13 12 12 12 12 12 11 11 11 11 11
24 23 22 22 22 21 22 24 23 23 21 21 21 20 20 20 19 18 17 17 16 16 15 14 14 14 13 13 13 13 13 13 12 12 12 12 12 12 11 11 11 11 11 11
23 22 22 22 21 22 23 23 23 21 20 20 20 19 19 18 18 17 16 16 16 15 15 14 14 14 13 13 13 13 13 12 12 12 12 12 12 12 11 11 11 11 11 11
23 22 22 22 21 21 22 22 21 19 19 19 19 19 18 17 17 17 16 16 15 15 15 14 14 13 13 13 13 13 13 12 12 12 12 12 12 12 12 11 11 11 11 11
23 23 22 21 21 21 21 21 20 20 19 19 19 18 18 17 17 17 16 15 15 15 14 14 14 13 13 13 13 13 12 12 12 12 12 12 12 12 11 11 11 11 11 11
24 23 22 22 22 22 21 21 20 20 19 19 18 18 18 17 17 16 16 15 15 14 14 14 14 13 13 13 13 13 12 12 12 12 12 12 12 12 12 12 12 12 12 11
22 22 22 21 22 21 21 20 20 19 19 19 18 18 17 17 16 16 15 15 14 14 14 14 13 13 13 13 13 12 12 12 12 12 12 12 12 12 12 12 12 12 12 11
22 22 21 21 21 21 20 20 19 19 19 18 18 18 17 17 16 16 15 15 14 14 14 13 13 13 13 13 12 12 12 12 12 12 12 12 12 12 12 12 12 12 12 12

GEFSCGP_850_meantemp_228.txt.gz
Temperature
23 20 20 21 21 22 22 22 21 22 23 22 21 20 20 20 20 20 20 19 19 19 19 19 18 18 18 18 17 17 17 17 17 17 16 16 16 16 16 15 15 15 15 15
21 21 22 23 23 23 22 21 21 22 23 22 20 20 20 20 20 20 20 19 19 19 18 18 18 18 17 17 17 17 17 17 17 16 16 16 16 15 15 15 15 15 15 15
22 22 24 24 23 23 22 22 22 22 22 22 21 20 19 19 19 20 19 19 19 18 18 18 17 17 17 17 17 17 16 16 16 16 16 15 15 15 15 15 15 15 14 14
22 24 25 24 24 23 22 23 23 23 21 20 21 18 18 18 18 18 18 18 18 18 18 17 17 17 17 17 17 16 16 16 16 15 15 15 15 15 15 14 14 14 14 14
23 24 24 24 25 24 23 24 23 22 20 19 19 18 18 17 17 17 17 18 18 18 17 17 17 17 17 16 16 16 16 15 15 15 15 15 14 14 14 14 14 14 14 14
24 25 25 25 25 25 24 22 21 19 18 19 19 18 17 17 17 17 17 17 17 17 17 17 17 16 16 16 16 16 15 15 15 15 14 14 14 14 14 14 14 14 14 13
23 24 25 25 24 24 22 19 19 19 18 18 19 18 17 17 18 18 17 17 17 17 17 17 16 16 16 16 16 15 15 15 15 14 14 14 14 14 14 13 13 13 13 13
22 22 24 25 24 23 22 20 19 19 18 18 18 18 17 18 18 18 18 18 17 17 17 17 16 16 16 16 15 15 15 14 14 14 14 14 13 13 13 13 13 13 13 13
21 22 24 25 25 24 23 20 19 18 18 18 18 18 18 17 17 17 17 17 17 17 17 16 16 16 16 15 15 15 14 14 14 14 14 14 13 13 13 13 13 13 13 13
22 22 23 24 24 23 23 21 18 18 18 18 18 18 17 17 17 17 16 17 17 17 16 16 16 16 15 15 15 15 14 14 14 14 14 13 13 13 13 13 13 13 13 13
21 20 21 22 22 22 22 21 18 17 17 17 17 17 18 17 16 16 16 17 17 17 16 16 16 16 15 15 15 14 14 14 14 13 13 13 13 13 13 13 13 12 12 12
20 18 19 20 21 22 22 21 19 18 17 16 16 16 18 16 16 16 17 17 17 16 16 16 15 15 15 15 14 14 14 13 13 13 13 13 13 13 13 13 12 12 12 12
20 18 18 19 19 21 21 21 20 17 16 16 16 17 17 17 16 17 17 16 16 16 16 15 15 15 15 14 14 14 13 13 13 13 13 13 13 13 12 12 12 12 12 12
20 17 18 19 19 20 20 20 20 18 16 16 17 17 17 16 15 16 16 16 16 16 15 15 15 15 14 14 14 13 13 13 13 13 13 13 13 13 12 12 12 12 12 11
18 18 19 19 20 21 21 20 20 19 18 17 17 17 16 16 15 16 16 16 16 15 15 15 15 14 14 14 13 13 13 13 13 13 12 12 12 12 12 12 12 12 11 11
17 18 19 19 20 21 20 20 20 20 19 18 17 17 16 16 17 16 16 16 15 15 15 15 15 14 14 14 13 13 13 13 13 13 12 12 12 12 12 12 12 11 11 11
17 17 17 17 19 19 19 19 20 19 19 18 17 16 15 15 15 16 16 16 16 15 15 15 14 14 14 14 13 13 13 13 13 12 12 12 12 12 12 12 11 11 11 11
16 16 15 16 18 18 18 19 20 18 17 17 16 16 16 16 16 16 16 16 16 15 15 15 14 14 14 13 13 13 13 13 13 12 12 12 12 12 12 11 11 11 11 11
16 16 15 15 16 17 19 20 19 18 17 17 16 16 16 16 16 15 16 16 16 16 15 15 14 14 14 13 13 13 13 13 12 12 12 12 12 12 12 11 11 11 11 11
17 15 15 15 17 17 17 20 20 18 16 17 16 15 16 15 13 14 16 16 16 16 15 15 14 14 14 13 13 13 13 13 12 12 12 12 12 12 12 11 11 11 11 11
17 16 16 15 16 16 18 19 19 17 16 17 17 17 16 15 15 16 16 16 16 15 15 15 14 14 13 13 13 13 13 13 13 12 12 12 12 12 12 11 11 11 11 11
16 15 15 15 15 16 18 18 17 16 17 18 17 17 17 17 16 16 16 16 15 15 15 14 14 14 13 13 13 13 13 12 12 12 12 12 12 12 12 12 11 11 11 11
16 15 14 15 15 17 19 19 19 19 18 18 17 17 17 17 16 16 16 15 15 15 14 14 14 13 13 13 13 13 13 12 12 12 12 12 12 12 12 12 11 11 11 11
17 16 15 15 16 17 19 19 19 19 18 18 18 17 17 16 16 16 15 15 15 14 14 14 14 13 13 13 13 13 12 12 12 12 12 12 12 12 12 12 11 11 11 11
17 16 15 15 16 17 18 19 18 18 18 18 17 17 17 16 16 15 15 15 14 14 14 14 13 13 13 13 13 12 12 12 12 12 12 12 12 12 12 12 11 11 11 11
16 16 15 15 16 16 17 18 18 18 18 17 17 17 16 16 16 15 15 14 14 14 14 13 13 13 13 13 12 12 12 12 12 12 12 12 12 12 12 12 12 11 11 11

GEFSCGP_850_meantemp_234.txt.gz
Temperature
20 18 18 19 19 20 20 20 19 19 19 19 18 17 17 17 17 17 17 17 17 17 17 17 17 17 17 17 17 16 16 16 16 16 16 16 15 15 15 15 15 15 14 14
19 19 20 20 20 20 19 19 19 19 19 19 17 17 17 17 16 16 16 17 17 17 17 17 17 17 17 17 17 16 16 16 16 16 16 15 15 15 15 15 15 14 14 14
20 20 21 21 20 20 19 19 19 19 19 18 18 17 17 17 17 17 17 17 17 17 17 17 17 17 16 16 16 16 16 16 15 15 15 15 15 15 14 14 14 14 14 14
20 20 21 21 21 20 19 20 20 19 18 17 18 17 17 16 16 16 16 16 17 17 17 17 17 17 16 16 16 16 16 15 15 15 15 15 15 14 14 14 14 14 14 14
21 21 21 21 21 21 20 20 19 19 18 17 17 17 16 16 16 15 15 16 16 17 17 16 16 16 16 16 16 16 15 15 15 15 14 14 14 14 14 14 14 14 13 13
21 21 21 21 22 21 20 19 18 16 16 17 18 17 16 15 16 16 16 16 16 16 16 16 16 15 15 15 15 15 15 15 14 14 14 14 14 14 13 13 13 13 13 13
21 21 21 22 21 21 19 18 17 18 16 17 17 17 16 16 16 16 15 16 16 16 16 16 15 15 15 15 15 15 15 14 14 14 14 14 14 13 13 13 13 13 13 13
20 20 21 21 21 20 19 18 18 18 17 16 17 16 16 16 16 16 16 16 16 16 16 15 15 15 15 15 15 14 14 14 14 14 14 13 13 13 13 13 13 13 13 13
20 20 22 21 21 20 19 17 17 16 17 16 16 16 16 16 15 15 15 15 15 15 15 15 15 15 15 15 14 14 14 14 14 14 13 13 13 13 13 13 13 13 13 13
20 20 21 21 21 20 19 16 15 16 16 17 17 16 15 16 15 14 14 14 15 15 15 15 15 15 15 15 14 14 14 14 14 13 13 13 13 13 13 13 13 12 12 12
19 19 20 20 20 20 19 17 15 14 15 16 16 16 16 15 15 14 14 15 15 15 15 15 15 15 15 14 14 14 14 14 13 13 13 13 13 13 12 12 12 12 12 12
17 17 18 19 19 19 19 18 16 16 16 14 14 15 16 15 15 14 14 15 15 15 15 15 15 15 14 14 14 14 13 13 13 13 13 13 12 12 12 12 12 12 12 12
17 16 17 18 18 19 19 17 16 14 13 13 14 16 16 15 14 15 15 15 15 15 15 15 15 14 14 14 14 13 13 13 13 13 12 12 12 12 12 12 12 12 12 12
17 16 17 18 18 18 18 18 16 15 14 14 15 16 15 15 14 14 15 15 15 15 15 14 14 14 14 14 13 13 13 13 13 12 12 12 12 12 12 12 12 12 11 11
16 17 17 17 18 18 18 18 17 16 15 15 16 15 15 14 14 14 15 15 15 14 14 14 14 14 14 13 13 13 13 13 13 12 12 12 12 12 12 12 11 11 11 11
15 16 17 18 18 18 18 18 18 17 16 16 16 15 15 15 15 14 15 15 14 14 14 14 14 14 14 13 13 13 13 13 13 12 12 12 12 12 12 11 11 11 11 11
14 15 16 16 17 18 17 17 17 17 16 16 16 15 14 14 13 14 15 15 15 15 15 14 14 14 14 13 13 13 13 13 13 12 12 12 12 12 12 11 11 11 11 11
14 13 13 15 17 17 17 17 17 17 16 15 15 15 14 14 15 15 16 15 15 15 15 14 14 14 14 13 13 13 13 13 12 12 12 12 12 12 11 11 11 11 11 11
13 14 13 13 15 16 17 17 16 16 16 15 15 14 14 15 14 15 16 15 15 15 15 15 14 14 13 13 13 13 13 12 12 12 12 12 12 11 11 11 11 11 11 11
13 13 13 13 16 16 17 17 17 17 16 15 15 14 14 14 13 13 16 16 15 15 15 14 14 14 13 13 13 13 13 12 12 12 12 12 12 11 11 11 11 11 11 11
14 13 13 13 14 15 16 17 17 16 16 16 16 15 14 14 14 16 16 15 15 15 14 14 14 14 13 13 13 12 12 12 12 12 12 12 12 11 11 11 11 11 11 10
14 13 13 12 14 15 16 16 16 15 16 17 17 16 16 16 16 16 16 15 15 15 14 14 14 14 13 13 13 12 12 12 12 12 12 12 12 11 11 11 11 11 11 10
13 13 12 13 14 15 15 16 17 17 17 17 17 17 16 16 16 16 15 15 15 14 14 14 14 13 13 13 13 12 12 12 12 12 12 12 11 11 11 11 11 11 11 11
13 12 12 12 13 15 16 16 17 17 17 17 17 17 16 16 16 15 15 15 14 14 14 14 13 13 13 13 12 12 12 12 12 12 12 12 11 11 11 11 11 11 11 11
13 12 12 12 13 14 16 17 17 17 17 17 16 16 16 16 15 15 15 15 14 14 14 14 13 13 13 13 12 12 12 12 12 12 12 11 11 11 11 11 11 11 11 10
11 12 12 13 14 13 15 16 16 16 16 16 16 16 16 15 15 15 15 14 14 14 14 13 13 13 13 13 12 12 12 12 12 12 11 11 11 11 11 11 11 11 10 10

GEFSCGP_850_meantemp_240.txt.gz
Temperature
26 27 27 27 27 27 27 27 26 26 26 25 25 25 24 23 22 22 21 21 20 19 18 18 17 17 16 16 16 16 16 16 16 15 15 15 15 15 15 14 14 14 14 14
26 27 27 27 27 27 27 26 26 26 25 25 25 25 24 23 22 21 21 20 20 19 19 17 17 16 16 16 16 16 16 16 15 15 15 15 15 15 14 14 14 14 14 14
27 27 27 27 27 26 26 26 26 26 25 25 25 25 24 23 22 21 20 20 20 19 19 17 17 16 16 16 16 15 15 15 15 15 15 15 15 15 14 14 14 14 14 14
27 28 27 27 27 26 26 27 26 26 26 26 26 25 25 24 23 22 21 20 20 19 19 18 17 16 16 16 15 15 15 15 15 15 15 14 14 14 14 14 14 14 14 14
27 27 27 27 27 26 26 26 26 26 26 26 26 25 25 24 23 23 21 20 19 19 18 17 17 16 16 15 15 15 15 15 15 15 14 14 14 14 14 14 13 13 13 13
27 27 27 27 27 27 26 26 26 26 27 25 25 25 24 24 23 23 22 20 19 19 18 17 16 16 15 15 15 15 14 14 14 14 14 14 14 13 13 13 13 13 13 13
27 27 27 27 27 26 26 26 26 26 26 25 25 25 24 24 23 23 22 20 19 18 18 17 16 16 15 15 15 15 14 14 14 14 14 13 13 13 13 13 13 13 13 13
27 26 27 27 27 26 26 26 25 25 25 26 25 25 24 23 22 21 21 20 19 18 18 17 16 16 15 15 15 14 14 14 14 14 14 13 13 13 13 13 13 13 13 13
27 26 27 27 27 27 26 27 27 26 26 25 25 25 24 23 22 21 21 20 19 18 18 17 16 16 15 15 14 14 14 14 14 13 13 13 13 13 13 13 12 12 12 12
27 26 27 27 27 26 27 27 26 26 24 24 25 25 25 23 22 22 21 20 19 18 17 17 16 15 15 15 14 14 14 13 13 13 13 13 13 13 13 13 12 12 12 12
27 26 26 26 26 26 26 26 25 26 25 25 24 24 24 23 22 22 21 20 19 18 17 16 16 15 15 15 14 14 14 13 13 13 13 13 13 12 12 12 12 12 12 12
26 26 26 26 26 26 26 26 25 24 24 25 24 24 23 23 23 22 21 20 19 18 17 16 16 15 15 14 14 14 14 13 13 13 13 13 12 12 12 12 12 12 12 12
25 25 24 25 25 25 25 25 25 25 25 24 24 24 23 23 22 21 21 20 18 17 17 16 15 15 15 14 14 14 13 13 13 13 13 12 12 12 12 12 12 12 12 12
24 24 24 24 25 25 25 25 25 25 24 24 24 24 23 22 22 21 20 19 18 17 16 16 15 15 14 14 14 13 13 13 13 13 12 12 12 12 12 12 12 12 12 11
24 24 24 25 25 25 25 24 24 24 24 24 24 24 23 23 22 21 20 19 18 17 17 16 15 15 14 14 13 13 13 13 13 13 12 12 12 12 12 12 12 12 12 11
23 23 24 24 24 24 24 24 24 24 24 24 24 23 23 22 21 20 20 19 19 18 17 16 15 15 14 14 13 13 13 13 13 12 12 12 12 12 12 12 11 11 11 11
23 23 23 24 24 24 23 24 24 24 24 24 23 23 23 22 21 20 19 19 18 18 17 16 15 14 14 13 13 13 13 13 12 12 12 12 12 12 11 11 11 11 11 11
22 22 23 24 23 22 23 24 24 23 23 23 23 23 22 22 20 20 19 18 18 17 17 16 15 14 14 13 13 13 13 13 12 12 12 12 12 12 11 11 11 11 11 11
21 22 23 23 23 23 23 23 23 23 22 23 22 22 21 21 20 20 18 18 17 17 16 15 15 14 14 13 13 13 13 12 12 12 12 12 12 12 11 11 11 11 11 11
21 21 22 22 22 22 23 23 22 22 22 22 21 21 21 20 21 21 18 17 17 16 15 15 14 14 13 13 13 13 13 12 12 12 12 12 11 11 11 11 11 11 11 11
21 21 22 22 22 23 22 22 21 21 21 20 20 20 20 20 20 18 17 16 16 15 15 15 14 14 13 13 13 13 13 12 12 12 12 12 11 11 11 11 11 11 11 11
22 22 21 22 21 22 21 21 21 20 19 19 19 19 19 18 18 17 16 16 15 15 15 14 14 14 13 13 13 13 13 12 12 12 12 12 12 11 12 11 11 11 11 11
22 21 22 21 21 20 19 19 19 18 18 18 18 18 18 17 17 16 16 15 15 15 14 14 14 14 13 13 13 13 12 12 12 12 12 12 12 12 11 11 11 11 11 11
21 19 20 20 20 19 19 18 18 17 17 17 17 17 17 17 17 16 16 15 15 14 14 14 14 14 13 13 13 13 12 12 12 12 12 12 11 11 11 11 11 11 11 11
20 19 20 20 20 19 18 18 17 17 17 17 16 16 16 16 16 16 15 15 14 14 14 14 14 14 13 13 13 12 12 12 12 12 12 11 11 11 11 11 11 11 11 11
19 19 19 19 19 19 18 17 17 16 16 16 16 16 16 16 15 15 15 14 14 14 14 14 14 13 13 13 12 12 12 12 12 12 12 12 12 12 12 11 11 11 11 11

GEFSCGP_850_meantemp_246.txt.gz
Temperature
28 27 27 28 29 29 28 28 27 28 29 28 27 26 27 26 26 25 25 24 23 23 22 21 20 19 18 18 17 17 17 17 17 16 16 16 16 16 16 16 16 16 15 15
27 27 29 29 29 29 28 27 28 28 29 28 27 27 27 27 26 25 25 24 23 23 21 20 20 19 18 18 17 17 17 16 16 16 16 16 16 16 16 15 15 15 15 15
27 28 30 29 29 28 28 28 28 28 29 29 27 26 26 26 26 25 25 24 23 23 21 20 19 19 18 18 17 17 16 16 16 16 16 15 15 15 15 15 15 15 15 15
28 30 30 29 29 28 28 29 29 29 28 28 28 26 25 25 25 25 25 24 23 22 21 20 19 18 18 17 17 17 16 16 16 16 15 15 15 15 15 15 15 15 15 15
29 30 30 29 29 29 29 29 29 28 27 26 27 26 26 26 25 25 25 24 23 22 21 20 19 18 18 17 17 16 16 16 15 15 15 15 15 15 15 15 15 15 15 15
30 30 30 30 30 30 29 29 29 28 27 25 25 25 25 25 25 25 25 24 23 22 21 20 19 18 18 17 17 16 16 16 15 15 15 15 15 15 15 15 14 14 14 14
28 29 30 31 30 30 29 27 26 25 25 25 26 26 25 25 26 25 25 24 23 22 21 20 19 19 18 17 17 16 16 16 15 15 15 14 14 14 14 14 14 14 14 14
27 28 29 30 30 29 28 28 25 24 24 26 26 25 25 25 25 25 24 23 23 22 21 20 19 18 18 17 17 16 16 15 15 14 14 14 14 14 14 14 14 14 14 14
28 27 30 30 30 30 28 28 28 26 26 25 25 25 24 25 25 25 24 23 23 22 21 20 19 18 18 17 16 16 15 15 15 14 14 14 14 14 14 14 14 14 14 14
29 27 29 30 30 30 29 29 27 26 25 24 25 25 24 24 25 25 24 24 23 22 21 20 19 18 17 17 16 16 15 15 15 14 14 14 14 14 14 14 14 14 13 13
29 27 28 29 28 28 29 28 27 27 26 25 24 24 26 25 25 25 24 23 22 21 20 20 19 18 17 16 16 15 15 15 14 14 14 14 14 14 14 14 14 13 13 13
28 27 27 27 29 30 29 29 28 26 25 26 25 24 26 25 25 25 24 23 22 21 20 19 18 18 17 16 16 15 15 15 14 14 14 14 14 14 13 13 13 13 13 13
27 26 25 26 27 28 28 28 28 27 26 26 25 24 25 25 24 24 24 23 22 21 20 19 18 17 17 16 16 15 15 15 14 14 14 14 14 13 13 13 13 13 13 13
26 26 25 25 26 27 27 27 28 27 26 25 25 25 24 25 24 24 23 23 22 20 20 19 18 17 17 16 15 15 15 15 14 14 14 13 13 13 13 13 13 13 13 12
27 25 26 26 27 27 27 27 27 26 26 25 25 25 25 24 24 23 23 22 22 21 20 19 18 17 16 16 15 15 15 14 14 14 14 13 13 13 13 13 13 13 13 12
26 25 25 25 27 27 27 27 27 27 26 26 26 25 25 24 23 23 22 22 21 21 20 19 18 17 16 16 15 15 15 14 14 14 14 13 13 13 13 13 13 13 12 12
26 25 24 24 26 26 25 26 26 25 26 25 24 24 24 23 23 22 21 21 21 20 20 19 18 17 16 16 15 15 15 14 14 14 14 13 13 13 13 13 13 12 12 12
25 24 24 24 25 24 25 27 27 26 25 25 24 24 23 23 22 22 21 21 20 20 19 18 17 17 16 16 15 15 15 14 14 14 13 13 13 13 13 13 13 12 12 12
25 24 24 24 24 24 25 26 26 25 24 24 23 23 23 23 22 21 21 20 20 19 18 18 17 17 16 16 15 15 14 14 14 14 13 13 13 13 13 13 12 12 12 12
25 24 24 24 23 23 24 25 25 25 23 23 22 22 22 22 21 21 20 19 19 18 18 17 17 16 16 15 15 15 14 14 14 14 13 13 13 13 13 13 12 12 12 12
24 23 23 23 23 23 24 25 25 23 21 22 21 21 20 20 20 19 19 19 18 18 17 17 16 16 16 15 15 14 14 14 14 14 13 13 13 13 13 13 13 12 12 12
24 23 23 23 22 22 23 24 22 21 21 21 20 20 20 19 19 19 19 18 18 17 17 16 16 16 15 15 15 14 14 14 14 14 13 13 13 13 13 13 13 12 12 12
23 23 23 22 22 22 22 22 21 21 21 21 20 20 19 19 18 18 18 17 17 17 16 16 16 15 15 15 14 14 14 14 13 13 13 13 13 13 13 13 13 12 12 12
24 23 23 23 22 22 22 22 21 21 20 20 20 19 19 18 18 18 17 17 16 16 16 16 15 15 15 14 14 14 14 13 13 13 13 13 13 13 13 13 13 12 12 12
22 22 22 22 22 22 22 21 21 20 20 20 19 19 18 18 17 17 16 16 16 16 16 15 15 15 14 14 14 14 13 13 13 13 13 13 13 13 13 13 13 13 13 13
21 21 20 20 20 21 20 20 20 20 20 19 19 18 18 18 17 17 16 16 16 15 15 15 15 14 14 14 14 14 13 13 13 13 13 13 13 13 13 13 13 13 13 13

GEFSCGP_850_meantemp_252.txt.gz
Temperature
23 20 20 20 21 22 22 22 22 22 23 23 22 21 21 21 21 20 20 20 20 19 19 19 19 18 18 18 17 17 17 17 17 17 16 16 16 16 16 15 15 15 15 15
21 21 22 23 23 23 22 22 21 22 23 22 21 21 21 21 20 20 20 20 19 19 19 19 19 18 18 18 17 17 17 17 16 16 16 16 16 16 15 15 15 15 15 15
21 22 24 24 23 23 22 22 22 22 22 22 21 20 21 20 21 20 20 20 20 19 19 19 18 18 18 17 17 17 17 16 16 16 16 16 15 15 15 15 15 15 15 15
22 23 24 24 23 23 22 23 24 23 21 20 21 19 20 20 19 19 20 20 20 19 19 18 18 18 18 17 17 17 16 16 16 16 16 15 15 15 15 15 15 15 15 15
22 23 23 24 24 24 23 24 24 23 21 20 20 18 19 19 19 19 19 19 19 19 19 18 18 18 17 17 17 17 16 16 16 16 15 15 15 15 14 14 14 14 14 14
23 24 24 24 25 25 24 23 22 20 19 19 20 19 18 18 19 19 19 19 19 19 18 18 18 18 17 17 16 16 16 16 15 15 15 15 15 14 14 14 14 14 14 14
23 23 24 25 24 24 23 20 19 19 18 19 19 19 18 19 20 19 19 19 19 19 18 18 18 17 17 16 16 16 16 15 15 15 15 15 14 14 14 14 14 14 14 14
21 22 23 24 23 23 22 21 19 20 19 19 19 19 19 20 20 20 20 19 19 18 18 18 18 17 17 17 16 16 16 15 15 15 15 14 14 14 14 14 14 14 14 14
21 22 24 25 25 24 23 21 20 19 19 19 19 19 19 19 19 19 18 18 18 18 18 18 18 17 17 17 16 16 16 15 15 15 14 14 14 14 14 14 14 14 14 14
22 22 23 25 25 24 23 21 19 19 19 19 19 19 18 19 18 18 17 17 17 18 18 18 17 17 17 17 16 16 15 15 15 15 14 14 14 14 14 14 14 13 13 13
22 21 22 23 23 23 23 21 19 17 18 18 18 18 20 18 18 17 17 18 17 17 17 17 17 17 17 16 16 16 15 15 15 14 14 14 14 14 13 13 13 13 13 13
21 19 20 22 23 23 23 22 19 19 19 18 17 18 19 18 18 18 18 18 18 18 18 18 17 17 16 16 16 16 15 15 15 14 14 14 14 13 13 13 13 13 13 13
21 19 19 20 21 22 22 22 20 18 17 17 17 18 19 18 18 18 18 18 18 18 17 17 17 17 16 16 16 15 15 15 15 14 14 14 13 13 13 13 13 13 13 13
21 18 19 20 20 21 21 22 21 19 18 18 18 18 18 17 17 17 17 18 18 17 17 17 17 16 16 16 16 15 15 15 15 14 14 14 13 13 13 13 13 13 13 13
19 19 20 20 22 22 22 22 22 20 19 18 18 18 17 17 17 17 18 18 17 17 17 17 17 16 16 16 16 15 15 15 15 14 14 14 13 13 13 13 13 13 13 13
18 19 20 20 22 21 21 21 21 21 20 19 18 18 17 17 18 17 17 17 17 17 17 17 17 17 16 16 16 15 15 15 14 14 14 14 13 13 13 13 13 13 13 13
17 18 18 19 20 20 19 20 20 20 19 18 17 17 16 16 17 17 17 17 16 17 17 16 16 16 16 16 16 15 15 15 14 14 14 14 14 13 13 13 13 13 13 12
17 17 16 17 19 19 19 20 20 19 18 18 17 17 16 16 17 17 17 17 17 17 17 16 16 16 16 16 16 15 15 14 14 14 14 14 14 13 13 13 13 13 13 12
17 17 16 16 18 18 19 20 20 19 18 18 17 17 17 17 17 16 17 17 17 17 17 17 16 16 16 16 15 15 15 14 14 14 14 14 14 13 13 13 13 13 13 12
17 16 16 16 18 18 18 20 21 19 17 17 17 16 16 16 14 15 16 17 17 17 16 16 16 16 16 15 15 15 14 14 14 14 14 14 13 13 13 13 13 13 12 12
17 16 16 16 17 17 18 20 20 18 17 18 17 17 16 16 16 16 17 17 16 16 16 16 16 16 15 15 15 14 14 14 14 14 14 13 13 13 13 13 13 13 12 12
16 16 16 15 16 16 18 18 17 17 18 18 18 17 17 17 17 16 16 16 16 16 16 16 16 15 15 15 14 14 14 14 14 14 13 13 13 13 13 13 13 12 12 12
16 15 15 15 15 16 18 18 18 19 18 18 18 18 17 17 16 16 16 16 16 16 16 15 15 15 15 14 14 14 14 14 14 14 13 13 13 13 13 13 13 12 12 12
16 16 15 15 15 16 17 18 18 18 18 18 18 18 17 17 16 16 16 15 15 15 15 15 15 15 14 14 14 14 14 14 13 13 13 13 13 13 13 13 13 12 12 12
15 15 14 14 15 16 17 17 17 18 18 18 18 17 17 17 16 16 15 15 15 15 15 14 14 14 14 14 14 14 13 13 13 13 13 13 13 13 13 13 12 12 12 12
14 14 13 13 15 14 15 16 17 17 17 17 17 17 17 17 16 16 15 15 15 15 14 14 14 14 14 14 14 13 13 13 13 13 13 13 13 13 13 13 13 12 12 12

GEFSCGP_850_meantemp_258.txt.gz
Temperature
20 18 18 18 18 19 20 19 19 20 20 20 19 19 19 18 18 17 17 18 18 18 18 18 18 18 17 17 17 17 16 16 16 16 16 15 15 15 15 15 15 15 15 15
18 18 19 20 19 20 19 19 19 19 20 20 19 19 19 18 17 18 18 18 18 18 18 18 18 17 17 17 17 16 16 16 16 16 15 15 15 15 15 15 15 15 15 14
19 20 21 20 20 20 19 19 19 19 19 19 19 19 18 18 18 18 18 18 18 18 18 18 18 17 17 17 16 16 16 16 15 15 15 15 15 15 15 15 15 15 14 14
19 20 21 20 20 20 19 20 20 19 18 17 19 18 18 18 17 17 17 17 18 18 18 18 18 17 17 17 16 16 16 16 15 15 15 15 15 15 15 15 14 14 14 14
19 20 20 20 21 21 20 20 20 19 18 17 17 17 17 17 17 17 16 17 17 17 17 17 17 17 17 17 16 16 16 15 15 15 15 15 15 15 14 14 14 14 14 14
20 21 21 21 21 21 20 19 18 16 16 17 18 17 17 16 17 17 16 16 17 17 17 17 17 17 17 17 16 16 15 15 15 15 15 15 14 14 14 14 14 14 14 14
20 21 21 21 21 20 20 18 17 18 17 17 18 17 17 17 17 17 16 16 17 17 17 17 17 17 16 16 16 15 15 15 15 15 15 15 14 14 14 14 14 14 14 14
19 20 21 21 21 20 19 18 18 18 18 17 17 17 17 17 17 17 17 17 17 17 16 16 17 16 16 16 16 15 15 15 15 15 15 14 14 14 14 14 14 13 13 13
19 19 21 21 21 20 19 18 18 17 17 17 17 17 18 17 16 16 16 16 16 16 16 17 17 16 16 16 16 15 15 15 15 15 14 14 14 14 14 13 13 13 13 13
19 19 20 21 21 20 19 17 16 16 17 18 18 18 17 17 16 15 15 15 16 16 16 16 17 16 16 16 16 15 15 15 15 14 14 14 14 14 14 13 13 13 13 13
19 19 20 20 20 20 19 18 16 15 16 17 17 17 17 16 16 15 15 15 16 16 16 16 16 16 16 16 15 15 15 15 15 14 14 14 14 14 13 13 13 13 13 13
17 16 17 19 20 20 19 18 16 17 17 15 16 16 17 16 15 15 15 16 16 16 16 16 16 16 16 16 15 15 15 15 15 14 14 14 14 13 13 13 13 13 13 13
17 17 17 18 19 19 19 18 16 15 14 14 16 17 16 15 15 15 15 16 16 16 16 16 16 16 16 15 15 15 15 15 14 14 14 14 14 13 13 13 13 13 13 13
17 16 17 18 18 18 19 18 17 16 15 15 16 17 16 15 14 14 15 15 16 16 16 16 16 16 15 15 15 15 15 15 14 14 14 14 13 13 13 13 13 13 13 12
17 16 17 17 18 19 18 18 17 17 16 16 17 16 16 15 14 15 15 15 15 15 15 15 15 15 15 15 15 15 15 14 14 14 14 14 13 13 13 13 12 12 12 12
15 16 17 18 18 18 18 18 18 17 17 16 17 16 15 15 15 15 14 14 15 15 15 15 15 15 15 15 15 15 15 14 14 14 14 13 13 13 13 13 13 13 12 12
14 15 16 16 18 18 17 17 17 17 16 16 16 16 15 14 14 14 14 14 15 15 15 15 15 15 15 15 15 14 15 14 14 14 14 13 13 13 13 13 13 13 13 12
14 14 13 15 17 17 17 17 17 17 16 16 16 15 14 14 15 15 15 15 15 15 15 15 15 15 15 15 15 15 14 14 14 14 14 13 13 13 13 13 13 13 12 12
13 13 13 14 15 16 17 17 17 16 16 16 15 15 15 15 15 15 16 16 16 15 15 15 15 15 15 15 14 14 14 14 14 14 14 13 13 13 13 13 13 12 12 12
13 13 13 14 16 16 16 17 17 17 16 16 15 14 14 14 14 14 16 16 15 15 15 15 15 15 15 14 14 14 14 14 14 14 13 13 13 13 13 13 12 12 12 12
14 13 13 13 15 15 15 16 17 16 15 15 15 15 14 14 15 16 16 16 15 15 15 15 15 15 15 14 14 14 13 13 13 13 13 13 13 13 12 12 12 12 12 12
13 13 13 12 14 15 15 15 15 14 15 15 15 16 15 16 16 16 16 15 15 15 15 15 15 14 14 14 14 13 13 13 13 13 13 13 13 13 12 12 12 12 12 12
12 12 12 12 13 14 14 15 15 16 15 16 16 16 16 15 15 15 15 15 15 14 14 14 14 14 14 14 13 13 13 13 13 13 13 13 13 13 12 12 12 12 12 12
12 11 11 12 13 13 14 15 15 16 16 16 16 16 16 16 15 15 15 15 14 14 14 14 13 13 13 13 13 13 13 13 13 12 13 12 13 12 12 12 12 12 12 12
11 11 11 12 12 13 14 15 15 15 16 16 16 16 16 16 15 15 15 14 14 14 14 13 13 13 13 13 13 13 13 13 12 12 12 12 12 12 12 12 12 12 12 12
10 11 11 11 12 11 13 14 14 15 15 15 15 15 15 15 15 15 14 14 14 14 13 13 13 13 13 13 13 13 12 12 12 12 12 12 12 12 12 12 12 12 12 12

GEFSCGP_850_meantemp_264.txt.gz
Temperature
25 26 26 27 27 27 27 27 27 27 27 26 26 26 26 25 24 24 23 22 21 21 20 18 17 17 17 17 16 16 16 16 16 15 15 15 15 15 15 15 15 14 14 14
26 26 27 27 27 26 26 26 26 27 26 26 26 26 26 25 24 23 23 22 21 21 19 18 17 17 17 16 16 16 16 16 15 15 15 15 15 15 14 14 14 14 14 14
26 27 27 26 26 26 26 26 26 26 26 26 25 25 26 25 24 23 22 22 21 20 19 18 17 17 17 16 16 16 16 16 15 15 15 15 15 15 15 14 14 14 14 14
26 27 26 26 26 26 26 27 26 26 26 26 26 26 26 26 24 24 23 22 21 20 19 18 18 17 16 16 16 15 15 15 15 15 15 15 14 14 14 14 14 14 14 14
26 27 26 26 26 27 27 27 26 26 26 26 26 26 26 26 25 24 23 22 21 20 19 18 18 17 16 16 16 15 15 15 15 15 15 15 14 14 14 14 14 14 14 14
27 27 27 27 27 27 27 26 26 26 26 25 26 26 26 26 25 25 24 22 21 20 19 18 18 17 16 16 15 15 15 15 15 15 15 15 14 14 14 14 14 14 14 14
26 26 27 26 26 26 26 25 25 25 25 26 26 26 25 25 25 24 24 22 20 19 19 18 17 17 16 16 16 15 15 15 15 15 15 14 14 14 14 14 14 14 14 14
25 25 26 26 26 26 26 26 25 24 25 26 26 26 26 25 23 23 22 22 20 19 19 18 17 17 16 16 15 15 15 15 15 14 14 14 14 14 14 14 14 14 14 13
25 25 26 26 26 26 26 26 27 26 26 25 26 26 25 24 23 22 22 21 20 19 18 18 17 16 16 16 15 15 15 15 14 14 14 14 14 14 14 14 14 13 13 13
25 25 26 26 26 26 26 26 25 25 24 24 25 25 25 24 23 23 22 21 20 19 18 18 17 16 16 16 15 15 14 14 14 14 14 14 14 14 14 14 13 13 13 13
25 24 25 25 25 25 25 25 25 25 25 24 24 25 24 24 23 23 22 21 20 19 18 17 17 16 16 16 15 15 15 14 14 14 14 14 14 14 14 13 13 13 13 13
25 25 24 25 26 26 26 25 25 24 24 24 25 24 23 23 23 22 21 20 19 19 18 17 17 16 16 15 15 15 15 14 14 14 14 14 14 14 13 13 13 13 13 13
24 23 23 24 24 25 24 25 25 25 24 24 24 23 23 22 22 21 21 20 19 18 18 17 17 16 16 15 15 15 15 14 14 14 14 14 14 14 13 13 13 13 13 13
23 24 24 24 24 25 24 24 24 24 24 24 24 24 23 23 22 21 20 19 18 18 17 17 16 16 15 15 15 15 15 14 14 14 14 14 14 14 13 13 13 13 13 13
23 23 24 24 25 25 24 24 24 24 24 24 24 24 23 22 22 21 19 19 18 17 17 17 16 16 15 15 15 15 15 14 14 14 14 14 14 14 13 13 13 13 13 13
22 23 23 23 24 24 24 24 24 23 23 24 24 23 23 22 21 20 19 18 18 17 17 16 16 15 15 15 14 14 14 14 14 14 14 14 13 13 13 13 13 13 13 13
23 22 23 23 24 23 23 23 23 23 23 23 23 23 22 21 21 20 19 18 18 17 16 16 15 15 14 14 14 14 14 14 14 14 14 14 13 13 13 13 13 13 13 13
21 22 23 23 23 22 23 23 23 23 23 23 22 22 22 21 20 19 18 18 17 17 16 15 15 14 14 14 14 14 14 14 14 14 14 13 13 13 13 13 13 13 13 12
21 21 22 23 23 22 22 22 22 22 22 22 22 22 21 20 20 19 18 17 16 16 15 15 15 14 14 14 14 14 13 13 13 13 13 13 13 13 13 13 13 13 13 12
20 21 22 22 22 21 22 22 22 22 21 21 21 21 20 20 21 20 17 16 16 15 15 15 14 14 14 14 13 13 13 13 13 13 13 13 13 12 12 12 12 12 12 12
20 20 21 21 21 22 21 21 21 21 20 20 20 19 19 20 19 18 16 16 15 15 14 14 14 14 14 13 13 13 13 13 13 13 12 12 12 12 12 12 12 12 12 12
21 21 20 21 21 20 19 20 20 19 18 18 18 18 18 18 17 17 16 15 15 14 14 14 14 14 14 13 13 13 13 13 12 12 12 12 12 12 12 12 12 12 12 12
20 19 20 20 20 18 18 18 17 17 17 17 17 17 17 17 17 16 16 15 15 14 14 14 14 14 13 13 13 13 12 12 12 12 12 12 12 12 12 12 12 12 12 12
18 18 19 18 18 18 17 16 16 16 16 16 16 16 16 17 16 16 15 15 14 14 14 14 14 13 13 13 13 12 12 12 12 12 12 12 12 12 12 12 12 12 13 12
17 17 17 17 17 17 17 16 16 16 16 16 16 16 16 16 16 16 15 14 14 14 14 13 13 13 13 13 13 12 12 12 12 12 12 12 12 12 12 12 12 12 12 12
16 16 16 17 16 16 16 15 15 15 15 15 15 16 15 16 16 15 15 14 14 13 13 13 13 13 13 13 12 12 12 12 12 12 12 12 12 12 12 12 12 12 12 12

GEFSCGP_850_meantemp_270.txt.gz
Temperature
27 27 27 27 28 29 29 28 28 28 29 29 29 28 28 28 28 28 27 26 25 24 23 21 20 19 19 18 18 17 17 17 17 16 16 16 16 16 16 16 16 16 15 15
27 27 28 29 29 29 28 28 28 29 30 29 28 28 28 27 27 27 26 25 25 23 22 21 20 19 18 18 17 17 17 17 16 16 16 16 16 16 16 16 16 16 15 15
27 28 29 29 29 29 29 28 28 28 29 29 28 27 27 27 27 26 26 25 24 23 22 21 20 19 19 18 17 17 17 17 16 16 16 16 16 16 16 16 16 15 15 15
27 29 29 29 28 29 28 30 29 28 28 28 28 26 25 26 26 26 25 25 24 23 22 21 20 19 19 18 17 17 17 16 16 16 16 16 16 16 16 16 15 15 15 15
28 29 28 28 29 29 29 30 29 28 28 27 27 26 25 26 25 25 25 25 24 23 22 21 20 19 18 18 17 17 16 16 16 16 16 16 16 16 16 15 15 15 15 15
28 29 29 29 30 30 30 29 28 28 27 25 26 25 25 26 25 25 25 24 24 23 22 21 20 19 19 18 17 17 16 16 16 16 15 16 16 15 15 15 15 15 15 15
27 28 29 29 29 29 29 27 25 25 25 25 26 25 24 26 26 26 25 24 23 23 22 21 20 19 18 18 17 17 16 16 16 15 15 15 15 15 15 15 15 15 15 15
26 27 28 29 28 28 28 27 25 24 25 25 25 24 24 25 26 26 25 24 23 22 21 20 20 19 19 18 17 16 16 16 16 15 15 15 15 15 15 15 15 15 15 15
27 27 29 29 29 28 27 27 28 26 25 25 25 24 24 25 25 25 24 24 23 22 21 20 20 19 18 18 17 17 16 16 15 15 15 15 15 15 15 15 15 15 15 14
27 26 27 28 29 28 28 28 27 25 24 24 24 24 23 23 23 24 24 24 23 22 21 20 20 19 18 18 17 16 16 16 15 15 15 15 15 15 15 15 15 15 15 14
27 25 26 27 27 27 27 27 26 26 25 24 23 23 24 23 24 23 24 23 23 22 21 20 20 19 18 18 17 16 16 16 15 15 15 15 15 15 15 15 15 15 14 14
26 26 25 26 27 28 27 26 26 24 24 24 24 22 24 24 24 24 24 23 22 22 21 20 20 19 18 17 17 16 16 16 15 15 15 15 15 15 15 15 14 14 14 14
25 24 23 25 26 26 26 26 26 25 24 24 23 22 23 23 24 24 23 23 22 21 21 20 19 19 18 17 17 16 16 16 15 15 15 15 15 15 15 14 14 14 14 14
25 24 24 24 25 25 25 25 25 25 24 23 23 22 22 22 23 23 23 22 22 21 20 20 19 18 18 17 17 16 16 16 16 15 15 15 15 15 14 14 14 14 14 14
25 24 24 25 26 26 26 26 26 25 24 24 23 22 22 22 23 23 22 22 21 20 20 19 18 18 17 17 16 16 16 16 16 15 15 15 15 14 14 14 14 14 14 14
25 23 24 24 25 26 26 26 26 26 25 25 24 22 23 24 23 23 22 21 21 20 19 19 18 17 17 17 16 16 16 15 15 15 15 15 14 14 14 14 14 14 14 14
24 23 23 23 24 24 24 25 26 25 25 25 23 23 23 23 23 22 22 21 21 20 19 18 17 17 16 16 16 15 15 15 15 15 15 14 14 14 14 14 14 14 14 13
23 22 22 22 23 22 24 27 26 25 25 25 24 24 24 23 23 22 21 21 20 19 18 18 17 16 16 16 15 15 15 15 15 14 14 14 14 14 14 14 14 13 13 13
24 23 22 22 22 23 24 25 25 24 24 24 23 24 24 23 22 21 21 20 20 19 18 17 17 16 16 15 15 15 15 14 14 14 14 14 14 14 14 13 13 13 13 13
24 23 22 22 21 21 22 25 25 24 22 23 23 23 23 22 22 21 20 20 19 18 17 17 16 16 15 15 15 14 14 14 14 14 14 14 14 14 13 13 13 13 13 13
22 22 22 22 21 22 23 24 25 22 21 21 22 21 21 21 20 19 19 19 18 18 17 17 16 16 15 15 14 14 14 14 14 14 14 13 13 13 13 13 13 13 13 13
22 22 21 21 21 20 22 22 21 20 20 21 20 20 20 20 19 19 19 18 18 17 17 16 16 15 15 14 14 14 14 14 14 13 13 13 13 13 13 13 13 13 13 13
21 21 21 20 20 20 20 19 19 20 20 20 20 19 19 19 19 19 18 18 17 17 16 16 15 15 15 14 14 14 14 13 13 13 13 13 13 13 13 13 13 13 13 13
20 21 21 20 20 20 20 19 19 19 19 19 19 19 19 18 18 18 18 17 17 16 16 15 15 15 15 14 14 14 13 13 13 13 13 13 13 13 13 13 13 13 13 13
19 20 20 19 19 19 19 19 18 18 18 18 18 18 18 18 18 17 17 17 17 16 16 15 15 15 14 14 14 13 13 13 13 13 13 13 13 13 13 13 13 13 13 13
18 18 18 18 18 18 18 18 18 18 18 18 17 17 17 17 17 17 17 16 16 16 15 15 15 15 14 14 14 13 13 13 13 13 12 12 13 13 13 13 13 13 13 13

GEFSCGP_850_meantemp_276.txt.gz
Temperature
23 20 19 20 21 21 22 22 22 23 23 22 22 22 22 22 22 21 21 21 21 20 20 20 20 19 19 19 19 18 18 18 17 17 16 16 16 16 16 16 16 16 16 16
20 20 21 22 23 23 22 22 22 22 23 23 21 21 21 21 21 21 21 20 20 20 20 20 19 19 19 18 18 18 18 17 17 17 16 16 16 16 16 16 16 16 16 16
20 21 23 23 23 23 23 22 22 22 22 22 21 21 20 21 21 21 21 20 20 20 20 19 19 19 18 18 18 18 18 17 17 17 16 16 16 16 16 16 16 15 15 15
21 22 23 23 23 23 22 23 24 23 21 19 21 19 19 20 20 20 20 19 19 19 19 19 19 18 18 18 18 17 17 17 16 16 16 16 16 16 16 15 15 15 15 15
21 22 22 23 24 24 23 24 23 23 21 19 19 19 19 19 19 19 19 19 19 19 19 19 19 18 18 18 17 17 17 17 16 16 16 16 16 16 15 15 15 15 15 15
22 23 23 24 24 25 24 23 22 20 18 19 19 19 18 18 19 19 19 19 19 19 18 18 18 18 18 17 17 17 16 16 16 16 16 16 16 15 15 15 15 15 15 15
22 23 23 24 23 23 23 20 19 19 18 18 19 19 18 19 19 19 19 19 19 19 18 18 18 18 18 17 17 17 17 16 16 16 15 15 15 15 15 15 15 15 15 15
20 21 23 23 23 22 21 20 19 19 18 18 19 18 18 19 19 19 19 19 18 18 18 18 18 18 18 17 17 17 16 16 16 16 15 15 15 15 15 15 15 15 15 15
20 21 23 24 24 23 22 20 19 18 18 18 18 18 18 18 18 18 18 18 18 18 18 18 18 18 18 17 17 17 16 16 16 16 15 15 15 15 15 15 15 15 15 15
21 21 22 23 23 22 21 20 18 18 18 18 19 18 18 18 18 17 17 17 17 18 18 18 18 17 17 17 17 17 16 16 16 15 15 15 15 15 15 15 15 15 15 15
20 20 21 21 22 21 21 20 18 17 17 18 18 18 18 17 17 17 17 17 17 17 18 18 17 17 17 17 17 16 16 16 15 15 15 15 15 15 15 15 15 14 14 14
20 18 18 20 21 22 21 20 18 18 17 17 17 17 19 17 17 17 17 17 17 18 18 18 17 17 17 16 16 16 16 15 15 15 15 15 15 15 14 14 14 14 14 14
20 17 18 19 19 20 20 20 19 17 16 16 16 17 18 17 17 17 17 17 17 17 17 17 17 17 17 16 16 16 15 15 15 15 15 15 14 14 14 14 14 14 14 14
20 17 17 18 19 19 20 20 19 17 16 17 17 17 18 17 17 17 17 17 17 17 17 17 17 16 16 16 16 16 15 15 15 15 15 15 14 14 14 14 14 14 14 14
18 18 18 19 20 20 20 20 20 19 18 17 17 17 17 17 17 17 17 17 17 16 17 17 17 16 16 16 16 16 15 15 15 14 14 14 14 14 14 14 14 14 14 14
17 18 18 19 20 20 20 20 20 20 19 18 18 18 17 17 18 17 17 17 17 16 16 17 17 16 16 16 15 15 15 15 15 14 14 14 14 14 14 14 14 14 14 13
16 17 17 17 19 19 18 19 20 19 19 18 18 17 17 17 17 17 17 17 17 17 17 17 17 16 16 16 16 15 15 15 14 14 14 14 14 14 14 14 14 13 13 13
16 16 15 16 17 17 18 19 20 19 18 18 17 17 17 17 17 18 18 17 17 17 17 17 17 16 16 16 15 15 15 14 14 14 14 14 14 13 13 13 13 13 13 13
16 16 15 15 16 17 18 19 19 18 17 17 17 17 17 17 17 17 18 18 18 17 17 17 17 16 16 16 15 15 14 14 14 14 14 14 13 13 13 13 13 13 13 13
16 15 15 15 16 16 17 18 19 18 16 17 17 16 16 16 15 15 17 18 18 17 17 17 17 16 16 15 15 15 14 14 14 14 13 13 13 13 13 13 13 13 13 13
15 15 15 15 15 15 17 18 19 17 16 17 17 16 16 15 15 17 17 18 18 17 17 17 16 16 16 15 15 15 14 14 14 14 13 13 13 13 13 13 13 13 13 13
15 14 14 14 14 15 16 17 16 15 16 17 17 17 16 17 17 17 17 17 17 17 17 16 16 16 15 15 15 15 14 14 14 13 13 13 13 13 13 13 13 13 12 12
14 13 13 13 14 14 16 16 17 17 16 16 17 17 17 16 16 16 16 16 16 16 16 16 16 15 15 15 15 15 14 14 14 13 13 13 13 13 13 13 13 12 12 12
14 13 13 13 14 14 16 16 16 17 17 17 17 17 17 16 16 16 16 16 16 16 16 15 15 15 15 15 14 14 14 14 13 13 13 13 13 13 13 12 12 12 12 12
13 13 12 12 13 14 15 15 16 16 16 16 16 16 16 16 16 16 16 15 15 15 15 15 15 15 14 14 14 14 14 13 13 13 13 13 13 13 13 12 12 12 12 12
11 12 12 12 13 12 14 15 15 15 15 16 16 16 16 16 15 15 15 15 15 15 15 15 15 14 14 14 14 14 13 13 13 13 13 13 13 12 12 12 12 12 12 12

GEFSCGP_850_meantemp_282.txt.gz
Temperature
19 17 17 18 18 19 20 19 19 19 20 20 19 19 19 19 19 18 18 18 19 19 19 19 19 19 19 18 18 18 18 17 17 17 16 16 16 16 15 15 15 15 15 15
18 18 19 19 19 19 19 19 19 19 20 20 19 19 19 18 18 18 18 18 18 18 19 18 19 19 18 18 18 18 17 17 17 16 16 16 16 16 15 15 15 15 15 15
19 19 20 20 20 20 19 19 19 19 19 19 19 19 19 19 19 18 18 18 18 18 18 18 18 18 18 18 17 17 17 17 16 16 16 16 16 15 15 15 15 15 15 15
18 19 20 20 20 20 19 20 20 19 18 17 19 17 18 18 17 18 18 18 18 18 18 18 18 18 17 17 17 17 17 16 16 16 16 16 16 15 15 15 15 15 15 15
19 19 20 20 20 21 20 20 19 19 18 17 17 17 17 17 17 17 17 17 18 18 18 18 18 18 17 17 17 16 16 16 16 16 16 16 15 15 15 15 15 15 15 15
19 20 20 20 21 21 20 19 18 16 16 17 17 17 17 16 17 17 17 17 17 18 17 17 17 17 17 16 16 16 16 16 16 16 15 15 15 15 15 15 15 15 14 14
19 20 20 21 20 20 19 18 17 17 16 16 17 17 17 17 17 17 17 17 17 18 17 17 17 17 17 16 16 16 16 16 16 15 15 15 15 15 15 15 15 14 14 14
18 19 20 20 20 19 19 18 17 17 17 16 17 17 17 17 17 17 17 17 17 17 17 17 17 17 16 16 16 16 16 16 15 15 15 15 15 15 15 15 14 14 14 14
18 18 20 20 20 19 18 17 17 16 16 16 16 17 17 17 16 16 16 16 16 17 17 17 17 17 16 16 16 16 16 15 15 15 15 15 15 14 14 14 14 14 14 14
18 18 19 20 20 19 18 16 15 16 16 17 17 17 17 17 16 15 15 15 16 16 16 16 17 17 17 16 16 16 16 15 15 15 15 15 15 14 14 14 14 14 14 14
18 18 19 19 19 18 17 17 15 14 15 16 16 17 17 17 16 15 15 15 16 16 16 16 16 17 16 16 16 16 15 15 15 15 14 14 14 14 14 14 14 14 14 14
17 16 16 18 19 19 18 17 15 16 16 15 15 16 17 16 15 15 15 15 16 16 16 16 16 16 16 16 16 15 15 15 15 14 14 14 14 14 14 14 14 14 14 14
17 16 16 17 18 18 18 17 16 15 14 14 15 17 16 15 15 15 15 15 15 16 16 16 16 16 16 16 15 15 15 15 15 14 14 14 14 14 14 14 14 14 14 14
17 15 16 17 17 17 17 17 16 15 15 15 15 16 16 16 15 15 15 15 15 15 15 15 15 16 15 15 15 15 15 15 14 14 14 14 14 14 14 14 14 14 14 14
16 16 16 16 17 17 18 17 16 16 15 16 16 16 16 15 15 15 15 15 15 15 15 15 15 15 15 15 15 15 15 15 14 14 14 14 14 14 14 13 13 13 13 13
14 15 16 16 17 17 17 17 17 16 16 16 16 16 15 15 15 15 15 15 15 15 15 15 15 15 15 15 15 15 15 15 14 14 14 14 14 14 14 13 13 13 13 13
13 14 15 15 16 17 16 16 17 16 16 16 16 16 15 15 15 15 15 15 15 16 16 16 16 16 15 15 15 15 15 14 14 14 14 14 14 13 13 13 13 13 13 13
13 13 12 14 16 16 16 16 16 16 15 15 15 15 15 15 15 16 16 16 15 16 16 16 16 16 15 15 15 15 14 14 14 14 14 14 13 13 13 13 13 13 13 13
12 13 12 13 14 15 16 16 15 15 15 15 14 14 14 15 15 15 16 16 16 16 17 16 16 16 15 15 15 14 14 14 14 14 14 13 13 13 13 13 13 13 13 13
12 12 12 13 14 15 15 16 16 15 15 15 14 14 14 14 14 14 16 16 16 16 16 16 16 16 15 15 15 14 14 14 14 13 13 13 13 13 13 13 12 12 12 12
12 12 12 13 14 14 14 14 16 15 14 14 14 14 14 13 14 15 16 16 16 16 16 16 16 15 15 15 15 14 14 14 14 13 13 13 13 13 12 12 12 12 12 12
12 12 12 12 13 14 14 14 14 13 14 14 14 14 14 15 15 15 15 16 16 16 16 16 15 15 15 15 14 14 14 14 14 13 13 13 13 12 12 12 12 12 12 12
11 11 11 11 12 12 12 13 14 14 14 14 14 14 15 15 15 15 15 15 15 15 15 15 15 15 14 14 14 14 14 14 13 13 13 13 13 12 12 12 12 12 12 12
10 10 10 10 11 12 12 13 13 14 14 14 14 14 15 15 15 15 15 15 15 15 15 15 14 14 14 14 14 14 14 13 13 13 13 13 13 12 12 12 12 12 12 12
9 10 10 10 11 11 12 13 13 13 14 14 14 14 14 14 14 14 14 14 14 14 14 14 14 14 14 14 13 13 13 13 13 13 13 12 12 12 12 12 12 12 12 12
8 9 9 10 10 10 11 12 12 12 13 13 13 13 14 14 14 14 14 14 14 14 14 14 14 13 13 13 13 13 13 13 13 13 12 12 12 12 12 12 12 12 12 11

GEFSCGP_850_meantemp_288.txt.gz
Temperature
25 26 26 27 27 27 27 27 26 27 27 26 26 26 27 26 26 25 25 24 23 22 21 19 19 18 17 17 17 17 17 17 16 16 16 16 16 15 15 15 15 15 15 15
25 26 27 27 27 26 26 26 26 27 26 26 26 26 27 26 26 25 25 24 23 22 21 19 18 18 17 17 17 17 17 17 16 16 16 16 15 15 15 15 15 15 15 15
25 27 27 26 26 26 26 26 26 26 26 26 26 26 26 26 25 24 24 23 23 22 20 19 18 18 17 17 17 17 17 17 16 16 16 16 15 15 15 15 15 15 15 15
26 27 26 26 26 26 26 27 26 26 26 26 26 25 26 26 26 25 24 23 23 22 20 19 18 18 17 17 17 16 16 17 16 16 16 16 16 16 15 15 15 15 15 15
26 26 26 26 26 26 26 27 26 26 26 26 26 25 26 26 26 25 24 23 23 22 20 19 18 18 17 17 17 16 16 16 16 16 16 15 15 15 15 15 15 15 15 15
26 27 26 26 26 26 26 26 26 26 26 25 26 25 25 26 25 25 25 23 22 21 20 19 18 17 17 17 16 16 16 16 16 16 16 15 15 15 15 15 15 15 15 14
26 26 26 26 26 26 26 25 24 25 25 25 26 25 25 25 25 24 24 23 21 20 20 19 18 17 17 16 16 16 16 16 16 16 15 15 15 15 15 15 15 14 14 14
25 25 26 26 25 25 25 25 24 24 24 25 25 25 25 25 24 23 23 22 21 20 19 19 18 17 17 16 16 16 16 16 16 15 15 15 15 15 15 15 15 14 14 14
25 25 26 26 26 26 25 25 26 25 25 25 25 25 25 24 23 23 22 21 21 20 19 18 18 17 17 16 16 16 15 15 15 15 15 15 15 15 15 15 14 14 14 14
25 24 25 25 25 25 26 26 25 24 23 23 24 24 25 24 23 23 22 21 20 19 19 18 17 17 17 16 16 16 15 15 15 15 15 15 15 15 15 14 14 14 14 14
25 24 25 25 24 25 25 25 25 25 24 23 23 24 25 24 23 23 22 21 20 19 19 18 17 16 16 16 16 15 15 15 15 15 15 15 15 15 14 14 14 14 14 14
24 24 24 25 25 25 25 25 24 23 23 23 23 23 24 24 23 22 22 21 20 19 18 17 17 16 16 16 16 16 15 15 15 15 14 14 14 14 14 14 14 14 14 14
24 23 23 23 24 24 24 24 24 24 23 23 23 23 23 23 22 22 21 20 19 18 18 17 16 16 16 16 15 16 15 15 15 14 14 14 14 14 14 14 14 14 14 14
23 23 23 23 24 24 24 24 24 24 23 23 23 23 23 22 22 21 20 19 19 18 17 17 16 16 15 15 15 15 15 15 15 14 14 14 14 14 14 14 14 14 14 13
23 23 23 24 24 24 24 23 23 23 23 23 23 22 22 22 21 20 19 19 18 18 17 17 16 16 15 15 15 15 15 14 14 14 14 14 14 14 13 14 13 13 13 13
22 22 23 23 23 23 23 23 23 22 23 23 22 22 22 21 20 19 19 18 18 18 17 17 16 15 15 15 15 15 14 14 14 14 14 14 13 13 13 13 13 13 13 13
22 21 22 22 23 22 22 22 22 22 22 22 22 22 21 20 20 19 18 18 18 17 17 16 16 15 15 15 15 14 14 14 14 14 14 13 13 13 13 13 13 13 13 13
20 21 22 22 21 20 22 22 22 21 21 21 21 21 20 20 19 18 17 17 17 17 16 16 15 15 15 15 14 14 14 14 14 14 14 13 13 13 13 13 13 13 12 12
19 20 21 21 21 21 21 21 21 20 20 20 20 20 19 19 19 18 17 17 16 16 16 15 15 15 15 15 14 14 14 14 14 14 14 13 13 13 13 13 13 12 12 12
19 19 21 21 20 20 20 20 20 20 19 18 18 18 18 19 20 19 17 16 16 15 15 15 15 15 14 14 14 14 14 14 14 14 13 13 13 13 13 13 12 12 12 12
19 19 20 20 20 20 19 19 20 19 18 17 17 17 17 17 18 16 16 15 15 15 15 14 14 14 14 14 14 14 14 14 14 14 13 13 13 13 13 12 12 12 12 12
18 19 19 20 19 19 17 19 18 17 16 15 15 15 15 15 15 15 15 15 15 14 14 14 14 14 14 14 14 13 13 14 13 13 13 13 12 12 13 12 12 12 12 12
17 17 18 18 17 16 15 16 15 15 15 15 15 15 15 15 15 15 15 14 14 14 14 14 14 14 13 13 13 13 13 13 13 13 13 12 12 12 12 12 12 12 12 12
16 16 16 16 16 15 15 14 14 14 14 14 14 14 14 14 15 14 14 14 14 13 13 13 13 13 13 13 13 13 13 13 12 12 12 12 12 12 12 12 12 12 12 12
15 15 16 16 15 15 14 13 13 13 14 14 14 14 14 14 14 14 13 13 13 13 13 13 13 13 13 13 12 13 12 12 12 12 12 12 12 12 12 12 12 12 12 12
14 14 14 15 14 14 13 13 13 13 13 13 13 13 13 13 13 13 13 13 13 12 12 12 12 12 12 12 12 12 12 12 12 12 12 12 12 12 12 12 12 12 12 11